Observation data for Wall on 01/09/2018      Previous  Date  Next       Current Mesonet Observations  Soil Data  Daily Summary Page  Observations in Plain Language
KWA1 090600Z 14007KT 07/M00 A3016 RMK A01 T00671002  RH  061%=      5-min Rain = 0
KWA1 090601Z 14007KT 07/M00 A3016 RMK A01 T00671002  RH  062%=      5-min Rain = 0
KWA1 090602Z 15007KT 07/M00 A3016 RMK A01 T00661002  RH  062%=      5-min Rain = 0
KWA1 090603Z 15007KT 07/M00 A3016 RMK A01 T00661002  RH  062%=      5-min Rain = 0
KWA1 090604Z 15007KT 07/M00 A3016 RMK A01 T00651002  RH  062%=      5-min Rain = 0
KWA1 090605Z 15007KT 06/M00 A3016 RMK A01 T00641002  RH  063%=      5-min Rain = 0
KWA1 090606Z 15007KT 06/M00 A3016 RMK A01 T00631002  RH  063%=      5-min Rain = 0
KWA1 090607Z 15007KT 06/M00 A3016 RMK A01 T00621002  RH  064%=      5-min Rain = 0
KWA1 090608Z 15007KT 06/M00 A3016 RMK A01 T00611002  RH  064%=      5-min Rain = 0
KWA1 090609Z 15007KT 06/M00 A3016 RMK A01 T00611002  RH  064%=      5-min Rain = 0
KWA1 090610Z 15007KT 06/M00 A3016 RMK A01 T00611001  RH  064%=      5-min Rain = 0
KWA1 090611Z 15006KT 06/M00 A3016 RMK A01 T00611001  RH  065%=      5-min Rain = 0
KWA1 090612Z 15006KT 06/M00 A3016 RMK A01 T00601001  RH  065%=      5-min Rain = 0
KWA1 090613Z 15006KT 06/M00 A3016 RMK A01 T00601002  RH  065%=      5-min Rain = 0
KWA1 090614Z 15006KT 06/M00 A3016 RMK A01 T00601001  RH  065%=      5-min Rain = 0
KWA1 090615Z 15006KT 06/M00 A3016 RMK A01 T00601002  RH  065%=      5-min Rain = 0
KWA1 090616Z 15006KT 06/M00 A3016 RMK A01 T00601001  RH  065%=      5-min Rain = 0
KWA1 090617Z 15006KT 06/M00 A3016 RMK A01 T00601001  RH  065%=      5-min Rain = 0
KWA1 090618Z 16005KT 06/M00 A3016 RMK A01 T00601001  RH  065%=      5-min Rain = 0
KWA1 090619Z 17004KT 06/M00 A3016 RMK A01 T00591001  RH  065%=      5-min Rain = 0
KWA1 090620Z 19004KT 06/M00 A3016 RMK A01 T00591001  RH  066%=      5-min Rain = 0
KWA1 090621Z 24003KT 06/M00 A3016 RMK A01 T00581001  RH  066%=      5-min Rain = 0
KWA1 090622Z 24004KT 06/00 A3016 RMK A01 T005600-0  RH  067%=      5-min Rain = 0
KWA1 090623Z 23004KT 06/00 A3016 RMK A01 T00550000  RH  068%=      5-min Rain = 0
KWA1 090624Z 23003KT 06/00 A3016 RMK A01 T00550001  RH  068%=      5-min Rain = 0
KWA1 090625Z 21004KT 06/00 A3016 RMK A01 T00560001  RH  067%=      5-min Rain = 0
KWA1 090626Z 20004KT 06/00 A3016 RMK A01 T00580000  RH  066%=      5-min Rain = 0
KWA1 090627Z 21003KT 06/00 A3016 RMK A01 T006000-0  RH  065%=      5-min Rain = 0
KWA1 090628Z 21003KT 06/00 A3016 RMK A01 T00610001  RH  065%=      5-min Rain = 0
KWA1 090629Z 23003KT 06/00 A3016 RMK A01 T00600001  RH  066%=      5-min Rain = 0
KWA1 090630Z 25003KT 06/00 A3016 RMK A01 T00580001  RH  067%=      5-min Rain = 0
KWA1 090631Z 26004KT 05/00 A3016 RMK A01 T00540000  RH  068%=      5-min Rain = 0
KWA1 090632Z 27004KT 05/00 A3016 RMK A01 T005200-0  RH  069%=      5-min Rain = 0
KWA1 090633Z 27005KT 05/00 A3016 RMK A01 T005000-0  RH  070%=      5-min Rain = 0
KWA1 090634Z 26005KT 05/00 A3016 RMK A01 T004900-0  RH  070%=      5-min Rain = 0
KWA1 090635Z 26006KT 05/00 A3016 RMK A01 T005000-0  RH  070%=      5-min Rain = 0
KWA1 090636Z 25006KT 05/00 A3016 RMK A01 T00530000  RH  069%=      5-min Rain = 0
KWA1 090637Z 25006KT 05/00 A3016 RMK A01 T00540000  RH  068%=      5-min Rain = 0
KWA1 090638Z 25006KT 05/M00 A3016 RMK A01 T00531001  RH  068%=      5-min Rain = 0
KWA1 090639Z 25006KT 05/M00 A3016 RMK A01 T00521001  RH  069%=      5-min Rain = 0
KWA1 090640Z 24007KT 05/M00 A3016 RMK A01 T00521001  RH  069%=      5-min Rain = 0
KWA1 090641Z 24007KT 05/M00 A3016 RMK A01 T00511001  RH  069%=      5-min Rain = 0
KWA1 090642Z 24007KT 05/M00 A3016 RMK A01 T00511002  RH  069%=      5-min Rain = 0
KWA1 090643Z 24007KT 05/M00 A3016 RMK A01 T00501002  RH  069%=      5-min Rain = 0
KWA1 090644Z 24006KT 05/M00 A3016 RMK A01 T00501002  RH  069%=      5-min Rain = 0
KWA1 090645Z 24006KT 05/M00 A3016 RMK A01 T00501002  RH  069%=      5-min Rain = 0
KWA1 090646Z 24006KT 05/M00 A3016 RMK A01 T00491002  RH  069%=      5-min Rain = 0
KWA1 090647Z 25006KT 05/M00 A3016 RMK A01 T00481003  RH  070%=      5-min Rain = 0
KWA1 090648Z 26005KT 05/M00 A3016 RMK A01 T00471003  RH  070%=      5-min Rain = 0
KWA1 090649Z 26005KT 05/M00 A3016 RMK A01 T00491002  RH  069%=      5-min Rain = 0
KWA1 090650Z 26005KT 05/M00 A3016 RMK A01 T00501003  RH  069%=      5-min Rain = 0
KWA1 090651Z 26005KT 05/M00 A3016 RMK A01 T00501003  RH  068%=      5-min Rain = 0
KWA1 090652Z 26006KT 05/M00 A3016 RMK A01 T00491003  RH  069%=      5-min Rain = 0
KWA1 090653Z 26006KT 05/M00 A3016 RMK A01 T00491003  RH  069%=      5-min Rain = 0
KWA1 090654Z 27006KT 05/M00 A3016 RMK A01 T00491003  RH  069%=      5-min Rain = 0
KWA1 090655Z 28006KT 05/M00 A3016 RMK A01 T00491003  RH  069%=      5-min Rain = 0
KWA1 090656Z 28006KT 05/M00 A3016 RMK A01 T00501003  RH  069%=      5-min Rain = 0
KWA1 090657Z 28007KT 05/M00 A3016 RMK A01 T00501003  RH  069%=      5-min Rain = 0
KWA1 090658Z 28007KT 05/M00 A3016 RMK A01 T00501003  RH  069%=      5-min Rain = 0
KWA1 090659Z 27007KT 05/M00 A3016 RMK A01 T00501002  RH  069%=      5-min Rain = 0
KWA1 090700Z 28007KT 05/M00 A3016 RMK A01 T00491003  RH  069%=      5-min Rain = 0
KWA1 090701Z 28007KT 05/M00 A3016 RMK A01 T00481002  RH  070%=      5-min Rain = 0
KWA1 090702Z 28006KT 05/M00 A3016 RMK A01 T00481002  RH  070%=      5-min Rain = 0
KWA1 090703Z 28007KT 05/M00 A3016 RMK A01 T00481002  RH  070%=      5-min Rain = 0
KWA1 090704Z 28007KT 05/M00 A3016 RMK A01 T00471002  RH  070%=      5-min Rain = 0
KWA1 090705Z 28007KT 05/M00 A3016 RMK A01 T00471002  RH  070%=      5-min Rain = 0
KWA1 090706Z 28008KT 05/M00 A3016 RMK A01 T00481001  RH  071%=      5-min Rain = 0
KWA1 090707Z 29008KT 05/M00 A3016 RMK A01 T00471001  RH  071%=      5-min Rain = 0
KWA1 090708Z 29007KT 05/M00 A3016 RMK A01 T00471002  RH  071%=      5-min Rain = 0
KWA1 090709Z 29007KT 05/M00 A3016 RMK A01 T00481002  RH  070%=      5-min Rain = 0
KWA1 090710Z 29007KT 05/M00 A3016 RMK A01 T00481002  RH  070%=      5-min Rain = 0
KWA1 090711Z 29007KT 05/M00 A3016 RMK A01 T00471002  RH  071%=      5-min Rain = 0
KWA1 090712Z 29007KT 05/M00 A3016 RMK A01 T00471001  RH  071%=      5-min Rain = 0
KWA1 090713Z 29006KT 05/M00 A3016 RMK A01 T00461002  RH  071%=      5-min Rain = 0
KWA1 090714Z 28005KT 05/M00 A3016 RMK A01 T00461001  RH  071%=      5-min Rain = 0
KWA1 090715Z 27004KT 05/M00 A3016 RMK A01 T00451002  RH  072%=      5-min Rain = 0
KWA1 090716Z 28005KT 04/M00 A3016 RMK A01 T00431002  RH  072%=      5-min Rain = 0
KWA1 090717Z 28005KT 04/M00 A3016 RMK A01 T00431002  RH  072%=      5-min Rain = 0
KWA1 090718Z 28004KT 04/M00 A3015 RMK A01 T00441002  RH  072%=      5-min Rain = 0
KWA1 090719Z 27003KT 04/M00 A3015 RMK A01 T00441002  RH  072%=      5-min Rain = 0
KWA1 090720Z 28004KT 04/M00 A3015 RMK A01 T00431002  RH  072%=      5-min Rain = 0
KWA1 090721Z 28004KT 04/M00 A3015 RMK A01 T00421003  RH  072%=      5-min Rain = 0
KWA1 090722Z 28004KT 04/M00 A3015 RMK A01 T00421003  RH  072%=      5-min Rain = 0
KWA1 090723Z 28004KT 04/M00 A3015 RMK A01 T00421004  RH  072%=      5-min Rain = 0
KWA1 090724Z 28003KT 04/M00 A3015 RMK A01 T00421004  RH  072%=      5-min Rain = 0
KWA1 090725Z 28003KT 04/M00 A3015 RMK A01 T00431003  RH  072%=      5-min Rain = 0
KWA1 090726Z 28003KT 04/M00 A3015 RMK A01 T00431003  RH  072%=      5-min Rain = 0
KWA1 090727Z 27003KT 04/M00 A3015 RMK A01 T00441003  RH  071%=      5-min Rain = 0
KWA1 090728Z 27003KT 05/M00 A3014 RMK A01 T00451003  RH  071%=      5-min Rain = 0
KWA1 090729Z 25003KT 05/M00 A3014 RMK A01 T00471002  RH  071%=      5-min Rain = 0
KWA1 090730Z 25003KT 05/M00 A3014 RMK A01 T00481002  RH  070%=      5-min Rain = 0
KWA1 090731Z 25003KT 05/M00 A3014 RMK A01 T00501002  RH  069%=      5-min Rain = 0
KWA1 090732Z 25003KT 05/M00 A3014 RMK A01 T00501002  RH  069%=      5-min Rain = 0
KWA1 090733Z 24003KT 05/M00 A3014 RMK A01 T00481002  RH  070%=      5-min Rain = 0
KWA1 090734Z 24003KT 05/M00 A3014 RMK A01 T00471002  RH  070%=      5-min Rain = 0
KWA1 090735Z 22003KT 05/M00 A3014 RMK A01 T00461002  RH  071%=      5-min Rain = 0
KWA1 090736Z 22002KT 05/M00 A3014 RMK A01 T00451003  RH  071%=      5-min Rain = 0
KWA1 090737Z 22002KT 05/M00 A3014 RMK A01 T00451003  RH  071%=      5-min Rain = 0
KWA1 090738Z 21002KT 05/M00 A3014 RMK A01 T00451003  RH  071%=      5-min Rain = 0
KWA1 090739Z 21002KT 05/M00 A3014 RMK A01 T00451003  RH  071%=      5-min Rain = 0
KWA1 090740Z 22002KT 05/M00 A3014 RMK A01 T00451003  RH  071%=      5-min Rain = 0
KWA1 090741Z 23002KT 05/M00 A3014 RMK A01 T00451003  RH  071%=      5-min Rain = 0
KWA1 090742Z 23002KT 05/M00 A3014 RMK A01 T00451003  RH  071%=      5-min Rain = 0
KWA1 090743Z 23002KT 05/M00 A3014 RMK A01 T00451003  RH  071%=      5-min Rain = 0
KWA1 090744Z 23002KT 05/M00 A3014 RMK A01 T00451004  RH  071%=      5-min Rain = 0
KWA1 090745Z 23002KT 05/M00 A3014 RMK A01 T00451003  RH  071%=      5-min Rain = 0
KWA1 090746Z 23002KT 04/M00 A3014 RMK A01 T00441003  RH  072%=      5-min Rain = 0
KWA1 090747Z 23001KT 04/M00 A3014 RMK A01 T00421003  RH  072%=      5-min Rain = 0
KWA1 090748Z 23001KT 04/M00 A3014 RMK A01 T00411003  RH  073%=      5-min Rain = 0
KWA1 090749Z 23002KT 04/M00 A3014 RMK A01 T00411003  RH  073%=      5-min Rain = 0
KWA1 090750Z 23002KT 04/M00 A3014 RMK A01 T00401003  RH  074%=      5-min Rain = 0
KWA1 090751Z 25002KT 04/M00 A3014 RMK A01 T00401003  RH  074%=      5-min Rain = 0
KWA1 090752Z 26002KT 04/M00 A3014 RMK A01 T00401003  RH  074%=      5-min Rain = 0
KWA1 090753Z 26002KT 04/M00 A3014 RMK A01 T00421003  RH  073%=      5-min Rain = 0
KWA1 090754Z 26002KT 04/M00 A3014 RMK A01 T00441002  RH  072%=      5-min Rain = 0
KWA1 090755Z 26002KT 04/M00 A3014 RMK A01 T00441002  RH  072%=      5-min Rain = 0
KWA1 090756Z 23002KT 04/M00 A3014 RMK A01 T00441003  RH  072%=      5-min Rain = 0
KWA1 090757Z 21002KT 04/M00 A3014 RMK A01 T00441003  RH  072%=      5-min Rain = 0
KWA1 090758Z 22002KT 04/M00 A3014 RMK A01 T00431003  RH  072%=      5-min Rain = 0
KWA1 090759Z 22002KT 04/M00 A3014 RMK A01 T00431003  RH  072%=      5-min Rain = 0
KWA1 090800Z 24001KT 04/M00 A3014 RMK A01 T00431003  RH  072%=      5-min Rain = 0
KWA1 090801Z 24001KT 04/M00 A3014 RMK A01 T00421002  RH  073%=      5-min Rain = 0
KWA1 090802Z 23001KT 04/M00 A3014 RMK A01 T00421002  RH  073%=      5-min Rain = 0
KWA1 090803Z 23001KT 04/M00 A3013 RMK A01 T00411003  RH  073%=      5-min Rain = 0
KWA1 090804Z 23001KT 04/M00 A3013 RMK A01 T00411003  RH  073%=      5-min Rain = 0
KWA1 090805Z 22001KT 04/M00 A3013 RMK A01 T00401003  RH  073%=      5-min Rain = 0
KWA1 090806Z 19001KT 04/M00 A3013 RMK A01 T00401002  RH  074%=      5-min Rain = 0
KWA1 090807Z 19001KT 04/M00 A3013 RMK A01 T00401003  RH  074%=      5-min Rain = 0
KWA1 090808Z 20001KT 04/M00 A3013 RMK A01 T00401003  RH  073%=      5-min Rain = 0
KWA1 090809Z 20001KT 04/M00 A3013 RMK A01 T00411003  RH  073%=      5-min Rain = 0
KWA1 090810Z 20001KT 04/M00 A3013 RMK A01 T00411003  RH  073%=      5-min Rain = 0
KWA1 090811Z 20002KT 04/M00 A3013 RMK A01 T00411003  RH  073%=      5-min Rain = 0
KWA1 090812Z 20002KT 04/M00 A3013 RMK A01 T00421003  RH  073%=      5-min Rain = 0
KWA1 090813Z 21002KT 04/M00 A3013 RMK A01 T00421003  RH  072%=      5-min Rain = 0
KWA1 090814Z 22002KT 04/M00 A3013 RMK A01 T00441003  RH  072%=      5-min Rain = 0
KWA1 090815Z 22001KT 05/M00 A3013 RMK A01 T00451002  RH  071%=      5-min Rain = 0
KWA1 090816Z 22001KT 05/M00 A3013 RMK A01 T00451003  RH  071%=      5-min Rain = 0
KWA1 090817Z 22001KT 05/M00 A3013 RMK A01 T00451003  RH  071%=      5-min Rain = 0
KWA1 090818Z 22001KT 05/M00 A3013 RMK A01 T00451003  RH  071%=      5-min Rain = 0
KWA1 090819Z 22002KT 05/M00 A3013 RMK A01 T00451003  RH  071%=      5-min Rain = 0
KWA1 090820Z 22001KT 05/M00 A3013 RMK A01 T00461003  RH  071%=      5-min Rain = 0
KWA1 090821Z 21002KT 05/M00 A3013 RMK A01 T00471003  RH  070%=      5-min Rain = 0
KWA1 090822Z 21002KT 05/M00 A3013 RMK A01 T00471003  RH  070%=      5-min Rain = 0
KWA1 090823Z 22002KT 05/M00 A3013 RMK A01 T00471003  RH  070%=      5-min Rain = 0
KWA1 090824Z 23002KT 05/M00 A3013 RMK A01 T00491003  RH  069%=      5-min Rain = 0
KWA1 090825Z 23003KT 05/M00 A3014 RMK A01 T00491003  RH  069%=      5-min Rain = 0
KWA1 090826Z 23003KT 05/M00 A3014 RMK A01 T00491002  RH  069%=      5-min Rain = 0
KWA1 090827Z 24003KT 05/M00 A3014 RMK A01 T00491003  RH  069%=      5-min Rain = 0
KWA1 090828Z 24003KT 05/M00 A3014 RMK A01 T00491003  RH  069%=      5-min Rain = 0
KWA1 090829Z 24003KT 05/M00 A3014 RMK A01 T00471003  RH  070%=      5-min Rain = 0
KWA1 090830Z 25003KT 05/M00 A3014 RMK A01 T00461004  RH  070%=      5-min Rain = 0
KWA1 090831Z 25003KT 04/M01 A3014 RMK A01 T00431005  RH  071%=      5-min Rain = 0
KWA1 090832Z 25002KT 04/M01 A3014 RMK A01 T00411005  RH  072%=      5-min Rain = 0
KWA1 090833Z 27002KT 04/M01 A3013 RMK A01 T00401005  RH  072%=      5-min Rain = 0
KWA1 090834Z 29002KT 04/M01 A3013 RMK A01 T00401005  RH  073%=      5-min Rain = 0
KWA1 090835Z 29002KT 04/M01 A3013 RMK A01 T00401005  RH  073%=      5-min Rain = 0
KWA1 090836Z 30002KT 04/M01 A3013 RMK A01 T00401005  RH  073%=      5-min Rain = 0
KWA1 090837Z 30002KT 04/M01 A3014 RMK A01 T00401005  RH  072%=      5-min Rain = 0
KWA1 090838Z 31002KT 04/M01 A3014 RMK A01 T00411005  RH  072%=      5-min Rain = 0
KWA1 090839Z 31003KT 04/M01 A3014 RMK A01 T00411005  RH  072%=      5-min Rain = 0
KWA1 090840Z 32004KT 04/M01 A3014 RMK A01 T00401006  RH  072%=      5-min Rain = 0
KWA1 090841Z 32004KT 04/M01 A3014 RMK A01 T00391006  RH  072%=      5-min Rain = 0
KWA1 090842Z 32004KT 04/M01 A3014 RMK A01 T00381008  RH  072%=      5-min Rain = 0
KWA1 090843Z 32004KT 04/M01 A3014 RMK A01 T00371007  RH  073%=      5-min Rain = 0
KWA1 090844Z 31004KT 04/M01 A3014 RMK A01 T00371007  RH  073%=      5-min Rain = 0
KWA1 090845Z 31004KT 04/M01 A3014 RMK A01 T00381006  RH  073%=      5-min Rain = 0
KWA1 090846Z 32004KT 04/M01 A3014 RMK A01 T00421005  RH  072%=      5-min Rain = 0
KWA1 090847Z 32004KT 04/M01 A3014 RMK A01 T00441005  RH  070%=      5-min Rain = 0
KWA1 090848Z 32004KT 04/M01 A3014 RMK A01 T00441007  RH  069%=      5-min Rain = 0
KWA1 090849Z 32004KT 04/M01 A3014 RMK A01 T00431007  RH  070%=      5-min Rain = 0
KWA1 090850Z 32005KT 04/M01 A3014 RMK A01 T00421007  RH  070%=      5-min Rain = 0
KWA1 090851Z 32005KT 04/M01 A3014 RMK A01 T00411007  RH  071%=      5-min Rain = 0
KWA1 090852Z 32005KT 04/M01 A3014 RMK A01 T00411008  RH  071%=      5-min Rain = 0
KWA1 090853Z 32006KT 04/M01 A3014 RMK A01 T00411007  RH  071%=      5-min Rain = 0
KWA1 090854Z 32005KT 04/M01 A3014 RMK A01 T00401008  RH  071%=      5-min Rain = 0
KWA1 090855Z 32005KT 04/M01 A3015 RMK A01 T00401007  RH  071%=      5-min Rain = 0
KWA1 090856Z 32005KT 04/M01 A3015 RMK A01 T00391008  RH  071%=      5-min Rain = 0
KWA1 090857Z 32006KT 04/M01 A3015 RMK A01 T00391007  RH  072%=      5-min Rain = 0
KWA1 090858Z 32006KT 04/M01 A3015 RMK A01 T00391006  RH  072%=      5-min Rain = 0
KWA1 090859Z 32006KT 04/M01 A3015 RMK A01 T00391006  RH  072%=      5-min Rain = 0
KWA1 090900Z 31006KT 04/M01 A3015 RMK A01 T00401006  RH  072%=      5-min Rain = 0
KWA1 090901Z 32006KT 04/M01 A3015 RMK A01 T00401007  RH  072%=      5-min Rain = 0
KWA1 090902Z 32006KT 04/M01 A3015 RMK A01 T00391007  RH  072%=      5-min Rain = 0
KWA1 090903Z 32006KT 04/M01 A3015 RMK A01 T00371007  RH  072%=      5-min Rain = 0
KWA1 090904Z 32006KT 04/M01 A3015 RMK A01 T00371007  RH  073%=      5-min Rain = 0
KWA1 090905Z 32006KT 04/M01 A3015 RMK A01 T00361008  RH  073%=      5-min Rain = 0
KWA1 090906Z 32006KT 04/M01 A3015 RMK A01 T00351008  RH  074%=      5-min Rain = 0
KWA1 090907Z 32006KT 03/M01 A3015 RMK A01 T00341008  RH  074%=      5-min Rain = 0
KWA1 090908Z 32006KT 03/M01 A3014 RMK A01 T00331008  RH  074%=      5-min Rain = 0
KWA1 090909Z 31006KT 03/M01 A3014 RMK A01 T00321009  RH  075%=      5-min Rain = 0
KWA1 090910Z 31006KT 03/M01 A3014 RMK A01 T00311010  RH  075%=      5-min Rain = 0
KWA1 090911Z 31006KT 03/M01 A3014 RMK A01 T00301010  RH  075%=      5-min Rain = 0
KWA1 090912Z 31006KT 03/M01 A3014 RMK A01 T00291009  RH  076%=      5-min Rain = 0
KWA1 090913Z 32006KT 03/M01 A3014 RMK A01 T00301009  RH  076%=      5-min Rain = 0
KWA1 090914Z 32006KT 03/M01 A3014 RMK A01 T00301009  RH  076%=      5-min Rain = 0
KWA1 090915Z 32005KT 03/M01 A3014 RMK A01 T00301009  RH  075%=      5-min Rain = 0
KWA1 090916Z 32005KT 03/M01 A3014 RMK A01 T00301010  RH  075%=      5-min Rain = 0
KWA1 090917Z 32005KT 03/M01 A3014 RMK A01 T00301009  RH  076%=      5-min Rain = 0
KWA1 090918Z 31005KT 03/M01 A3014 RMK A01 T00301010  RH  075%=      5-min Rain = 0
KWA1 090919Z 31005KT 03/M01 A3014 RMK A01 T00301009  RH  075%=      5-min Rain = 0
KWA1 090920Z 31006KT 03/M01 A3014 RMK A01 T00301009  RH  075%=      5-min Rain = 0
KWA1 090921Z 30006KT 03/M01 A3014 RMK A01 T00301009  RH  075%=      5-min Rain = 0
KWA1 090922Z 30006KT 03/M01 A3014 RMK A01 T00301009  RH  076%=      5-min Rain = 0
KWA1 090923Z 30006KT 03/M01 A3014 RMK A01 T00301009  RH  075%=      5-min Rain = 0
KWA1 090924Z 30006KT 03/M01 A3013 RMK A01 T00301009  RH  075%=      5-min Rain = 0
KWA1 090925Z 30005KT 03/M01 A3013 RMK A01 T00311009  RH  075%=      5-min Rain = 0
KWA1 090926Z 30005KT 03/M01 A3013 RMK A01 T00301009  RH  075%=      5-min Rain = 0
KWA1 090927Z 30005KT 03/M01 A3013 RMK A01 T00311009  RH  075%=      5-min Rain = 0
KWA1 090928Z 30005KT 03/M01 A3013 RMK A01 T00301009  RH  075%=      5-min Rain = 0
KWA1 090929Z 30005KT 03/M01 A3013 RMK A01 T00301009  RH  075%=      5-min Rain = 0
KWA1 090930Z 30005KT 03/M01 A3013 RMK A01 T00311008  RH  075%=      5-min Rain = 0
KWA1 090931Z 30005KT 03/M01 A3013 RMK A01 T00321008  RH  075%=      5-min Rain = 0
KWA1 090932Z 30005KT 03/M01 A3013 RMK A01 T00321009  RH  075%=      5-min Rain = 0
KWA1 090933Z 30005KT 03/M01 A3013 RMK A01 T00311009  RH  075%=      5-min Rain = 0
KWA1 090934Z 30005KT 03/M01 A3013 RMK A01 T00301009  RH  075%=      5-min Rain = 0
KWA1 090935Z 29005KT 03/M01 A3013 RMK A01 T00301009  RH  075%=      5-min Rain = 0
KWA1 090936Z 29004KT 03/M01 A3013 RMK A01 T00301009  RH  075%=      5-min Rain = 0
KWA1 090937Z 29004KT 03/M01 A3013 RMK A01 T00301010  RH  075%=      5-min Rain = 0
KWA1 090938Z 29004KT 03/M01 A3013 RMK A01 T00301010  RH  075%=      5-min Rain = 0
KWA1 090939Z 29004KT 03/M01 A3013 RMK A01 T00301011  RH  074%=      5-min Rain = 0
KWA1 090940Z 29004KT 03/M01 A3013 RMK A01 T00281012  RH  075%=      5-min Rain = 0
KWA1 090941Z 28004KT 03/M01 A3013 RMK A01 T00271012  RH  075%=      5-min Rain = 0
KWA1 090942Z 28004KT 03/M01 A3013 RMK A01 T00261013  RH  076%=      5-min Rain = 0
KWA1 090943Z 28004KT 03/M01 A3013 RMK A01 T00251012  RH  076%=      5-min Rain = 0
KWA1 090944Z 27003KT 03/M01 A3013 RMK A01 T00261012  RH  076%=      5-min Rain = 0
KWA1 090945Z 28004KT 03/M01 A3013 RMK A01 T00251012  RH  076%=      5-min Rain = 0
KWA1 090946Z 27004KT 03/M01 A3013 RMK A01 T00251012  RH  077%=      5-min Rain = 0
KWA1 090947Z 27004KT 03/M01 A3013 RMK A01 T00251012  RH  076%=      5-min Rain = 0
KWA1 090948Z 28004KT 03/M01 A3013 RMK A01 T00251013  RH  076%=      5-min Rain = 0
KWA1 090949Z 28004KT 02/M01 A3013 RMK A01 T00241014  RH  076%=      5-min Rain = 0
KWA1 090950Z 27004KT 02/M01 A3013 RMK A01 T00231014  RH  077%=      5-min Rain = 0
KWA1 090951Z 27004KT 02/M01 A3013 RMK A01 T00221013  RH  077%=      5-min Rain = 0
KWA1 090952Z 27004KT 02/M01 A3013 RMK A01 T00221012  RH  078%=      5-min Rain = 0
KWA1 090953Z 27003KT 02/M01 A3013 RMK A01 T00231012  RH  078%=      5-min Rain = 0
KWA1 090954Z 28003KT 02/M01 A3013 RMK A01 T00231012  RH  077%=      5-min Rain = 0
KWA1 090955Z 28003KT 02/M01 A3012 RMK A01 T00231013  RH  077%=      5-min Rain = 0
KWA1 090956Z 28004KT 02/M01 A3012 RMK A01 T00221013  RH  078%=      5-min Rain = 0
KWA1 090957Z 28004KT 02/M01 A3012 RMK A01 T00221012  RH  078%=      5-min Rain = 0
KWA1 090958Z 28004KT 02/M01 A3012 RMK A01 T00221012  RH  078%=      5-min Rain = 0
KWA1 090959Z 27004KT 02/M01 A3012 RMK A01 T00221012  RH  078%=      5-min Rain = 0
KWA1 091000Z 27004KT 02/M01 A3012 RMK A01 T00211014  RH  078%=      5-min Rain = 0
KWA1 091001Z 28004KT 02/M02 A3012 RMK A01 T00181017  RH  077%=      5-min Rain = 0
KWA1 091002Z 28004KT 02/M02 A3012 RMK A01 T00171016  RH  079%=      5-min Rain = 0
KWA1 091003Z 28004KT 02/M01 A3012 RMK A01 T00171013  RH  080%=      5-min Rain = 0
KWA1 091004Z 28003KT 02/M01 A3012 RMK A01 T00181012  RH  080%=      5-min Rain = 0
KWA1 091005Z 28004KT 02/M01 A3012 RMK A01 T00181014  RH  079%=      5-min Rain = 0
KWA1 091006Z 28004KT 02/M01 A3012 RMK A01 T00181014  RH  080%=      5-min Rain = 0
KWA1 091007Z 28004KT 02/M01 A3012 RMK A01 T00181013  RH  080%=      5-min Rain = 0
KWA1 091008Z 28004KT 02/M01 A3012 RMK A01 T00191012  RH  080%=      5-min Rain = 0
KWA1 091009Z 28003KT 02/M01 A3012 RMK A01 T00181014  RH  079%=      5-min Rain = 0
KWA1 091010Z 29004KT 02/M01 A3012 RMK A01 T00191012  RH  080%=      5-min Rain = 0
KWA1 091011Z 29004KT 02/M01 A3012 RMK A01 T00211009  RH  080%=      5-min Rain = 0
KWA1 091012Z 29003KT 02/M01 A3012 RMK A01 T00231009  RH  079%=      5-min Rain = 0
KWA1 091013Z 29003KT 02/M01 A3012 RMK A01 T00241012  RH  077%=      5-min Rain = 0
KWA1 091014Z 29003KT 02/M02 A3012 RMK A01 T00221015  RH  077%=      5-min Rain = 0
KWA1 091015Z 29004KT 02/M01 A3012 RMK A01 T00211013  RH  078%=      5-min Rain = 0
KWA1 091016Z 30004KT 02/M01 A3012 RMK A01 T00211012  RH  079%=      5-min Rain = 0
KWA1 091017Z 30004KT 02/M01 A3012 RMK A01 T00211013  RH  078%=      5-min Rain = 0
KWA1 091018Z 30003KT 02/M01 A3012 RMK A01 T00211013  RH  078%=      5-min Rain = 0
KWA1 091019Z 30003KT 02/M01 A3012 RMK A01 T00201014  RH  078%=      5-min Rain = 0
KWA1 091020Z 30003KT 02/M02 A3012 RMK A01 T00191015  RH  078%=      5-min Rain = 0
KWA1 091021Z 30003KT 02/M02 A3012 RMK A01 T00171016  RH  079%=      5-min Rain = 0
KWA1 091022Z 30003KT 02/M02 A3012 RMK A01 T00171015  RH  080%=      5-min Rain = 0
KWA1 091023Z 31003KT 02/M01 A3012 RMK A01 T00171013  RH  080%=      5-min Rain = 0
KWA1 091024Z 31003KT 02/M01 A3012 RMK A01 T00181012  RH  081%=      5-min Rain = 0
KWA1 091025Z 30003KT 02/M01 A3012 RMK A01 T00191011  RH  080%=      5-min Rain = 0
KWA1 091026Z 30003KT 02/M01 A3012 RMK A01 T00201012  RH  080%=      5-min Rain = 0
KWA1 091027Z 31003KT 02/M01 A3012 RMK A01 T00201011  RH  080%=      5-min Rain = 0
KWA1 091028Z 31002KT 02/M01 A3012 RMK A01 T00211012  RH  079%=      5-min Rain = 0
KWA1 091029Z 31002KT 02/M01 A3012 RMK A01 T00201014  RH  078%=      5-min Rain = 0
KWA1 091030Z 31003KT 02/M01 A3012 RMK A01 T00201013  RH  079%=      5-min Rain = 0
KWA1 091031Z 31003KT 02/M01 A3012 RMK A01 T00201012  RH  080%=      5-min Rain = 0
KWA1 091032Z 31003KT 02/M01 A3012 RMK A01 T00211011  RH  079%=      5-min Rain = 0
KWA1 091033Z 30002KT 02/M01 A3012 RMK A01 T00221011  RH  078%=      5-min Rain = 0
KWA1 091034Z 30002KT 02/M01 A3012 RMK A01 T00211013  RH  078%=      5-min Rain = 0
KWA1 091035Z 30002KT 02/M01 A3012 RMK A01 T00201014  RH  078%=      5-min Rain = 0
KWA1 091036Z 30003KT 02/M01 A3012 RMK A01 T00191013  RH  079%=      5-min Rain = 0
KWA1 091037Z 30003KT 02/M01 A3012 RMK A01 T00191013  RH  079%=      5-min Rain = 0
KWA1 091038Z 30003KT 02/M01 A3012 RMK A01 T00191012  RH  080%=      5-min Rain = 0
KWA1 091039Z 30003KT 02/M01 A3012 RMK A01 T00211011  RH  080%=      5-min Rain = 0
KWA1 091040Z 30003KT 02/M01 A3012 RMK A01 T00221011  RH  079%=      5-min Rain = 0
KWA1 091041Z 30003KT 02/M01 A3012 RMK A01 T00231011  RH  078%=      5-min Rain = 0
KWA1 091042Z 30004KT 02/M01 A3012 RMK A01 T00221012  RH  078%=      5-min Rain = 0
KWA1 091043Z 30003KT 02/M01 A3012 RMK A01 T00211013  RH  078%=      5-min Rain = 0
KWA1 091044Z 30003KT 02/M01 A3012 RMK A01 T00211012  RH  079%=      5-min Rain = 0
KWA1 091045Z 30003KT 02/M01 A3012 RMK A01 T00221011  RH  079%=      5-min Rain = 0
KWA1 091046Z 30003KT 02/M01 A3012 RMK A01 T00221011  RH  078%=      5-min Rain = 0
KWA1 091047Z 30003KT 02/M01 A3011 RMK A01 T00221012  RH  078%=      5-min Rain = 0
KWA1 091048Z 30003KT 02/M01 A3011 RMK A01 T00201014  RH  078%=      5-min Rain = 0
KWA1 091049Z 30003KT 02/M01 A3011 RMK A01 T00191013  RH  079%=      5-min Rain = 0
KWA1 091050Z 30003KT 02/M01 A3011 RMK A01 T00201011  RH  080%=      5-min Rain = 0
KWA1 091051Z 30003KT 02/M01 A3011 RMK A01 T00211010  RH  080%=      5-min Rain = 0
KWA1 091052Z 30003KT 02/M01 A3011 RMK A01 T00211011  RH  080%=      5-min Rain = 0
KWA1 091053Z 30003KT 02/M01 A3011 RMK A01 T00211011  RH  079%=      5-min Rain = 0
KWA1 091054Z 30003KT 02/M01 A3011 RMK A01 T00221010  RH  080%=      5-min Rain = 0
KWA1 091055Z 30003KT 02/M01 A3011 RMK A01 T00221010  RH  079%=      5-min Rain = 0
KWA1 091056Z 30003KT 02/M01 A3011 RMK A01 T00221010  RH  080%=      5-min Rain = 0
KWA1 091057Z 31003KT 02/M01 A3011 RMK A01 T00221011  RH  079%=      5-min Rain = 0
KWA1 091058Z 31003KT 02/M01 A3011 RMK A01 T00211012  RH  079%=      5-min Rain = 0
KWA1 091059Z 31003KT 02/M01 A3011 RMK A01 T00201013  RH  079%=      5-min Rain = 0
KWA1 091100Z 31003KT 02/M01 A3011 RMK A01 T00191013  RH  079%=      5-min Rain = 0
KWA1 091101Z 31002KT 02/M01 A3011 RMK A01 T00181014  RH  079%=      5-min Rain = 0
KWA1 091102Z 31002KT 02/M01 A3011 RMK A01 T00171014  RH  080%=      5-min Rain = 0
KWA1 091103Z 31002KT 02/M01 A3011 RMK A01 T00161014  RH  080%=      5-min Rain = 0
KWA1 091104Z 31001KT 02/M01 A3011 RMK A01 T00151014  RH  081%=      5-min Rain = 0
KWA1 091105Z 31001KT 02/M01 A3011 RMK A01 T00151014  RH  081%=      5-min Rain = 0
KWA1 091106Z 31001KT 02/M01 A3011 RMK A01 T00151013  RH  082%=      5-min Rain = 0
KWA1 091107Z 31002KT 02/M01 A3011 RMK A01 T00151013  RH  082%=      5-min Rain = 0
KWA1 091108Z 31002KT 02/M01 A3011 RMK A01 T00151013  RH  082%=      5-min Rain = 0
KWA1 091109Z 32002KT 02/M01 A3011 RMK A01 T00151013  RH  082%=      5-min Rain = 0
KWA1 091110Z 33002KT 02/M01 A3011 RMK A01 T00161012  RH  082%=      5-min Rain = 0
KWA1 091111Z 33002KT 02/M01 A3011 RMK A01 T00161012  RH  082%=      5-min Rain = 0
KWA1 091112Z 33002KT 02/M01 A3011 RMK A01 T00161012  RH  082%=      5-min Rain = 0
KWA1 091113Z 33002KT 02/M01 A3011 RMK A01 T00161012  RH  081%=      5-min Rain = 0
KWA1 091114Z 32003KT 02/M01 A3011 RMK A01 T00161013  RH  081%=      5-min Rain = 0
KWA1 091115Z 31003KT 02/M01 A3011 RMK A01 T00161013  RH  081%=      5-min Rain = 0
KWA1 091116Z 31003KT 02/M01 A3011 RMK A01 T00161013  RH  081%=      5-min Rain = 0
KWA1 091117Z 31003KT 02/M01 A3011 RMK A01 T00151013  RH  082%=      5-min Rain = 0
KWA1 091118Z 31003KT 02/M01 A3011 RMK A01 T00151013  RH  082%=      5-min Rain = 0
KWA1 091119Z 31003KT 02/M01 A3011 RMK A01 T00151013  RH  082%=      5-min Rain = 0
KWA1 091120Z 31003KT 02/M01 A3011 RMK A01 T00151013  RH  082%=      5-min Rain = 0
KWA1 091121Z 30003KT 01/M01 A3011 RMK A01 T00141013  RH  082%=      5-min Rain = 0
KWA1 091122Z 30003KT 01/M01 A3011 RMK A01 T00141013  RH  083%=      5-min Rain = 0
KWA1 091123Z 29003KT 01/M01 A3011 RMK A01 T00141012  RH  083%=      5-min Rain = 0
KWA1 091124Z 29003KT 02/M01 A3011 RMK A01 T00151012  RH  083%=      5-min Rain = 0
KWA1 091125Z 28003KT 02/M01 A3011 RMK A01 T00151012  RH  082%=      5-min Rain = 0
KWA1 091126Z 28003KT 02/M01 A3011 RMK A01 T00151012  RH  082%=      5-min Rain = 0
KWA1 091127Z 27003KT 02/M01 A3011 RMK A01 T00151012  RH  082%=      5-min Rain = 0
KWA1 091128Z 27003KT 02/M01 A3011 RMK A01 T00161013  RH  081%=      5-min Rain = 0
KWA1 091129Z 27003KT 02/M01 A3011 RMK A01 T00161014  RH  081%=      5-min Rain = 0
KWA1 091130Z 27003KT 02/M01 A3011 RMK A01 T00151014  RH  081%=      5-min Rain = 0
KWA1 091131Z 27003KT 02/M01 A3011 RMK A01 T00151014  RH  081%=      5-min Rain = 0
KWA1 091132Z 26003KT 01/M02 A3011 RMK A01 T00141015  RH  081%=      5-min Rain = 0
KWA1 091133Z 26003KT 01/M02 A301 RMK A01 T00121017  RH  081%=      5-min Rain = 0
KWA1 091134Z 25003KT 01/M02 A301 RMK A01 T00111017  RH  082%=      5-min Rain = 0
KWA1 091135Z 25003KT 01/M02 A301 RMK A01 T00101017  RH  083%=      5-min Rain = 0
KWA1 091136Z 25003KT 01/M02 A301 RMK A01 T00091016  RH  083%=      5-min Rain = 0
KWA1 091137Z 25004KT 01/M02 A301 RMK A01 T00091017  RH  083%=      5-min Rain = 0
KWA1 091138Z 25004KT 01/M02 A301 RMK A01 T00081018  RH  083%=      5-min Rain = 0
KWA1 091139Z 24004KT 01/M02 A301 RMK A01 T00081017  RH  083%=      5-min Rain = 0
KWA1 091140Z 24004KT 01/M02 A301 RMK A01 T00081016  RH  084%=      5-min Rain = 0
KWA1 091141Z 24004KT 01/M02 A301 RMK A01 T00101016  RH  083%=      5-min Rain = 0
KWA1 091142Z 24004KT 01/M02 A301 RMK A01 T00111016  RH  082%=      5-min Rain = 0
KWA1 091143Z 24004KT 01/M02 A301 RMK A01 T00121016  RH  082%=      5-min Rain = 0
KWA1 091144Z 24004KT 01/M02 A301 RMK A01 T00121017  RH  081%=      5-min Rain = 0
KWA1 091145Z 24004KT 01/M02 A301 RMK A01 T00101020  RH  080%=      5-min Rain = 0
KWA1 091146Z 24005KT 01/M02 A301 RMK A01 T00081021  RH  081%=      5-min Rain = 0
KWA1 091147Z 24005KT 01/M02 A301 RMK A01 T00061021  RH  082%=      5-min Rain = 0
KWA1 091148Z 24005KT 01/M02 A301 RMK A01 T00051022  RH  082%=      5-min Rain = 0
KWA1 091149Z 24005KT 00/M02 A301 RMK A01 T00041022  RH  083%=      5-min Rain = 0
KWA1 091150Z 24006KT 00/M02 A301 RMK A01 T00041021  RH  083%=      5-min Rain = 0
KWA1 091151Z 24006KT 00/M02 A301 RMK A01 T00031021  RH  084%=      5-min Rain = 0
KWA1 091152Z 24006KT 00/M02 A301 RMK A01 T00031020  RH  085%=      5-min Rain = 0
KWA1 091153Z 24006KT 00/M02 A301 RMK A01 T00031020  RH  085%=      5-min Rain = 0
KWA1 091154Z 24006KT 00/M02 A301 RMK A01 T00031020  RH  085%=      5-min Rain = 0
KWA1 091155Z 24006KT 00/M02 A301 RMK A01 T00041019  RH  085%=      5-min Rain = 0
KWA1 091156Z 24005KT 00/M02 A301 RMK A01 T00041019  RH  085%=      5-min Rain = 0
KWA1 091157Z 23005KT 00/M02 A301 RMK A01 T00041019  RH  085%=      5-min Rain = 0
KWA1 091158Z 23005KT 00/M02 A301 RMK A01 T00041019  RH  084%=      5-min Rain = 0
KWA1 091159Z 23005KT 00/M02 A301 RMK A01 T00041020  RH  084%=      5-min Rain = 0
KWA1 091200Z 23005KT 00/M02 A301 RMK A01 T00031021  RH  084%=      5-min Rain = 0
KWA1 091201Z 23004KT 00/M02 A301 RMK A01 T00021021  RH  085%=      5-min Rain = 0
KWA1 091202Z 22004KT 00/M02 A301 RMK A01 T00021020  RH  085%=      5-min Rain = 0
KWA1 091203Z 22004KT 00/M02 A301 RMK A01 T00031018  RH  086%=      5-min Rain = 0
KWA1 091204Z 22004KT 00/M02 A301 RMK A01 T00041019  RH  085%=      5-min Rain = 0
KWA1 091205Z 21004KT 00/M02 A301 RMK A01 T00031020  RH  085%=      5-min Rain = 0
KWA1 091206Z 21003KT 00/M02 A301 RMK A01 T00031021  RH  084%=      5-min Rain = 0
KWA1 091207Z 20003KT 00/M02 A301 RMK A01 T00021021  RH  084%=      5-min Rain = 0
KWA1 091208Z 20003KT 00/M02 A301 RMK A01 T00021021  RH  085%=      5-min Rain = 0
KWA1 091209Z 19002KT 00/M02 A301 RMK A01 T00021021  RH  085%=      5-min Rain = 0
KWA1 091210Z 17002KT 00/M02 A301 RMK A01 T00011021  RH  085%=      5-min Rain = 0
KWA1 091211Z 14002KT 00/M02 A301 RMK A01 T00011022  RH  085%=      5-min Rain = 0
KWA1 091212Z 14002KT 00/02 A301 RMK A01 T00-00-23  RH  085%=      5-min Rain = 0
KWA1 091213Z 13002KT M00/M02 A301 RMK A01 T10011023  RH  085%=      5-min Rain = 0
KWA1 091214Z 13002KT M00/M02 A301 RMK A01 T10021024  RH  085%=      5-min Rain = 0
KWA1 091215Z 12003KT M00/M03 A301 RMK A01 T10041026  RH  085%=      5-min Rain = 0
KWA1 091216Z 12002KT M01/M03 A301 RMK A01 T10051026  RH  086%=      5-min Rain = 0
KWA1 091217Z 12002KT M01/M03 A301 RMK A01 T10061026  RH  086%=      5-min Rain = 0
KWA1 091218Z 12002KT M01/M03 A301 RMK A01 T10061025  RH  087%=      5-min Rain = 0
KWA1 091219Z 13002KT M01/M03 A301 RMK A01 T10071025  RH  087%=      5-min Rain = 0
KWA1 091220Z 13002KT M01/M03 A301 RMK A01 T10071025  RH  088%=      5-min Rain = 0
KWA1 091221Z 12002KT M01/M03 A301 RMK A01 T10071025  RH  088%=      5-min Rain = 0
KWA1 091222Z 12002KT M01/M03 A301 RMK A01 T10071025  RH  088%=      5-min Rain = 0
KWA1 091223Z 10002KT M01/M03 A301 RMK A01 T10071025  RH  088%=      5-min Rain = 0
KWA1 091224Z 10002KT M01/M03 A301 RMK A01 T10071026  RH  087%=      5-min Rain = 0
KWA1 091225Z 10001KT M01/M03 A301 RMK A01 T10071026  RH  087%=      5-min Rain = 0
KWA1 091226Z 10001KT M01/M03 A301 RMK A01 T10071025  RH  088%=      5-min Rain = 0
KWA1 091227Z 10001KT M01/M03 A301 RMK A01 T10071025  RH  088%=      5-min Rain = 0
KWA1 091228Z 10001KT M01/M02 A301 RMK A01 T10071024  RH  088%=      5-min Rain = 0
KWA1 091229Z 10002KT M01/M02 A3011 RMK A01 T10051022  RH  089%=      5-min Rain = 0
KWA1 091230Z 10002KT M00/M02 A3011 RMK A01 T10041021  RH  088%=      5-min Rain = 0
KWA1 091231Z 09002KT M00/M02 A3011 RMK A01 T10031021  RH  088%=      5-min Rain = 0
KWA1 091232Z 08002KT M00/M02 A3011 RMK A01 T10031022  RH  087%=      5-min Rain = 0
KWA1 091233Z 08002KT M00/M02 A3011 RMK A01 T10031022  RH  087%=      5-min Rain = 0
KWA1 091234Z 07003KT M00/M02 A3011 RMK A01 T10031022  RH  087%=      5-min Rain = 0
KWA1 091235Z 07003KT M00/M02 A3011 RMK A01 T10021022  RH  087%=      5-min Rain = 0
KWA1 091236Z 07003KT M00/M02 A3011 RMK A01 T10021022  RH  087%=      5-min Rain = 0
KWA1 091237Z 07003KT M00/M02 A3011 RMK A01 T10011020  RH  087%=      5-min Rain = 0
KWA1 091238Z 06003KT 00/02 A3011 RMK A01 T00-00-20  RH  086%=      5-min Rain = 0
KWA1 091239Z 06003KT 00/02 A3011 RMK A01 T00000-21  RH  086%=      5-min Rain = 0
KWA1 091240Z 06003KT 00/02 A3011 RMK A01 T00000-22  RH  085%=      5-min Rain = 0
KWA1 091241Z 05003KT M00/M02 A3011 RMK A01 T10011023  RH  085%=      5-min Rain = 0
KWA1 091242Z 05003KT M00/M02 A3011 RMK A01 T10011023  RH  086%=      5-min Rain = 0
KWA1 091243Z 04003KT M00/M03 A3011 RMK A01 T10031026  RH  085%=      5-min Rain = 0
KWA1 091244Z 04003KT M01/M03 A3011 RMK A01 T10051026  RH  086%=      5-min Rain = 0
KWA1 091245Z 04003KT M01/M03 A3011 RMK A01 T10051025  RH  087%=      5-min Rain = 0
KWA1 091246Z 04004KT M01/M03 A3012 RMK A01 T10061025  RH  087%=      5-min Rain = 0
KWA1 091247Z 03003KT M01/M03 A3012 RMK A01 T10071027  RH  087%=      5-min Rain = 0
KWA1 091248Z 03003KT M01/M03 A3012 RMK A01 T10071026  RH  088%=      5-min Rain = 0
KWA1 091249Z 03003KT M01/M03 A3012 RMK A01 T10081027  RH  087%=      5-min Rain = 0
KWA1 091250Z 03003KT M01/M03 A3012 RMK A01 T10101028  RH  087%=      5-min Rain = 0
KWA1 091251Z 03003KT M01/M03 A3012 RMK A01 T10111028  RH  088%=      5-min Rain = 0
KWA1 091252Z 03003KT M01/M03 A3012 RMK A01 T10111027  RH  089%=      5-min Rain = 0
KWA1 091253Z 03003KT M01/M03 A3012 RMK A01 T10101026  RH  089%=      5-min Rain = 0
KWA1 091254Z 03003KT M01/M03 A3012 RMK A01 T10101027  RH  088%=      5-min Rain = 0
KWA1 091255Z 02003KT M01/M03 A3012 RMK A01 T10101028  RH  088%=      5-min Rain = 0
KWA1 091256Z 01003KT M01/M03 A3012 RMK A01 T10101028  RH  088%=      5-min Rain = 0
KWA1 091257Z 01002KT M01/M03 A3012 RMK A01 T10101027  RH  088%=      5-min Rain = 0
KWA1 091258Z 01002KT M01/M03 A3012 RMK A01 T10101027  RH  088%=      5-min Rain = 0
KWA1 091259Z 36002KT M01/M03 A3012 RMK A01 T10101027  RH  089%=      5-min Rain = 0
KWA1 091300Z 35003KT M01/M03 A3012 RMK A01 T10091025  RH  089%=      5-min Rain = 0
KWA1 091301Z 35003KT M01/M03 A3012 RMK A01 T10081025  RH  089%=      5-min Rain = 0
KWA1 091302Z 35003KT M01/M03 A3012 RMK A01 T10081025  RH  088%=      5-min Rain = 0
KWA1 091303Z 35003KT M01/M03 A3012 RMK A01 T10081025  RH  088%=      5-min Rain = 0
KWA1 091304Z 35003KT M01/M03 A3012 RMK A01 T10071025  RH  088%=      5-min Rain = 0
KWA1 091305Z 35003KT M01/M03 A3012 RMK A01 T10071025  RH  087%=      5-min Rain = 0
KWA1 091306Z 35003KT M01/M03 A3012 RMK A01 T10071026  RH  087%=      5-min Rain = 0
KWA1 091307Z 35004KT M01/M03 A3012 RMK A01 T10081026  RH  087%=      5-min Rain = 0
KWA1 091308Z 00004KT M01/M03 A3012 RMK A01 T10091028  RH  087%=      5-min Rain = 0
KWA1 091309Z 01004KT M01/M03 A3012 RMK A01 T10101029  RH  087%=      5-min Rain = 0
KWA1 091310Z 01004KT M01/M03 A3012 RMK A01 T10121030  RH  087%=      5-min Rain = 0
KWA1 091311Z 01004KT M01/M03 A3012 RMK A01 T10121030  RH  088%=      5-min Rain = 0
KWA1 091312Z 01004KT M01/M03 A3012 RMK A01 T10131029  RH  088%=      5-min Rain = 0
KWA1 091313Z 00004KT M01/M03 A3012 RMK A01 T10131029  RH  089%=      5-min Rain = 0
KWA1 091314Z 00004KT M01/M03 A3012 RMK A01 T10121028  RH  089%=      5-min Rain = 0
KWA1 091315Z 00004KT M01/M03 A3012 RMK A01 T10121028  RH  089%=      5-min Rain = 0
KWA1 091316Z 00004KT M01/M03 A3012 RMK A01 T10121029  RH  089%=      5-min Rain = 0
KWA1 091317Z 00004KT M01/M03 A3012 RMK A01 T10121027  RH  089%=      5-min Rain = 0
KWA1 091318Z 01004KT M01/M03 A3012 RMK A01 T10111026  RH  089%=      5-min Rain = 0
KWA1 091319Z 01003KT M01/M03 A3012 RMK A01 T10111026  RH  089%=      5-min Rain = 0
KWA1 091320Z 01003KT M01/M03 A3012 RMK A01 T10101026  RH  089%=      5-min Rain = 0
KWA1 091321Z 02003KT M01/M03 A3012 RMK A01 T10101027  RH  088%=      5-min Rain = 0
KWA1 091322Z 03004KT M01/M03 A3012 RMK A01 T10111029  RH  088%=      5-min Rain = 0
KWA1 091323Z 02004KT M01/M03 A3012 RMK A01 T10121029  RH  088%=      5-min Rain = 0
KWA1 091324Z 02003KT M01/M03 A3012 RMK A01 T10111027  RH  089%=      5-min Rain = 0
KWA1 091325Z 02003KT M01/M02 A3012 RMK A01 T10101024  RH  090%=      5-min Rain = 0
KWA1 091326Z 02003KT M01/M02 A3012 RMK A01 T10091023  RH  090%=      5-min Rain = 0
KWA1 091327Z 02004KT M01/M02 A3012 RMK A01 T10081023  RH  090%=      5-min Rain = 0
KWA1 091328Z 03003KT M01/M02 A3012 RMK A01 T10081024  RH  089%=      5-min Rain = 0
KWA1 091329Z 03003KT M01/M03 A3012 RMK A01 T10081025  RH  088%=      5-min Rain = 0
KWA1 091330Z 03004KT M01/M02 A3012 RMK A01 T10071024  RH  088%=      5-min Rain = 0
KWA1 091331Z 03004KT M01/M02 A3012 RMK A01 T10061023  RH  088%=      5-min Rain = 0
KWA1 091332Z 04004KT M01/M02 A3012 RMK A01 T10051022  RH  088%=      5-min Rain = 0
KWA1 091333Z 04004KT M01/M02 A3012 RMK A01 T10051023  RH  087%=      5-min Rain = 0
KWA1 091334Z 05005KT M01/M03 A3012 RMK A01 T10051025  RH  087%=      5-min Rain = 0
KWA1 091335Z 05005KT M01/M03 A3012 RMK A01 T10061025  RH  087%=      5-min Rain = 0
KWA1 091336Z 05004KT M01/M03 A3012 RMK A01 T10071026  RH  087%=      5-min Rain = 0
KWA1 091337Z 05004KT M01/M03 A3012 RMK A01 T10071026  RH  087%=      5-min Rain = 0
KWA1 091338Z 05004KT M01/M03 A3012 RMK A01 T10071025  RH  088%=      5-min Rain = 0
KWA1 091339Z 05004KT M01/M02 A3012 RMK A01 T10071024  RH  088%=      5-min Rain = 0
KWA1 091340Z 05004KT M01/M02 A3012 RMK A01 T10071024  RH  089%=      5-min Rain = 0
KWA1 091341Z 05004KT M01/M03 A3012 RMK A01 T10081025  RH  088%=      5-min Rain = 0
KWA1 091342Z 05004KT M01/M02 A3013 RMK A01 T10071023  RH  089%=      5-min Rain = 0
KWA1 091343Z 05004KT M01/M02 A3013 RMK A01 T10061022  RH  089%=      5-min Rain = 0
KWA1 091344Z 05004KT M01/M02 A3013 RMK A01 T10061023  RH  088%=      5-min Rain = 0
KWA1 091345Z 05004KT M01/M02 A3013 RMK A01 T10061023  RH  088%=      5-min Rain = 0
KWA1 091346Z 05004KT M01/M02 A3013 RMK A01 T10051022  RH  088%=      5-min Rain = 0
KWA1 091347Z 06004KT M01/M02 A3013 RMK A01 T10051022  RH  088%=      5-min Rain = 0
KWA1 091348Z 06004KT M00/M02 A3013 RMK A01 T10041022  RH  088%=      5-min Rain = 0
KWA1 091349Z 05004KT M00/M02 A3013 RMK A01 T10041022  RH  088%=      5-min Rain = 0
KWA1 091350Z 05003KT M00/M02 A3013 RMK A01 T10031022  RH  087%=      5-min Rain = 0
KWA1 091351Z 05002KT M00/M02 A3013 RMK A01 T10021021  RH  087%=      5-min Rain = 0
KWA1 091352Z 05003KT M00/M02 A3013 RMK A01 T10021022  RH  087%=      5-min Rain = 0
KWA1 091353Z 05003KT M00/M02 A3013 RMK A01 T10021021  RH  087%=      5-min Rain = 0
KWA1 091354Z 05003KT M00/M02 A3013 RMK A01 T10011020  RH  087%=      5-min Rain = 0
KWA1 091355Z 04003KT M00/M02 A3013 RMK A01 T10011020  RH  087%=      5-min Rain = 0
KWA1 091356Z 05003KT 00/02 A3013 RMK A01 T00000-19  RH  087%=      5-min Rain = 0
KWA1 091357Z 05004KT 00/M02 A3013 RMK A01 T00011019  RH  087%=      5-min Rain = 0
KWA1 091358Z 05004KT 00/M02 A3013 RMK A01 T00021018  RH  086%=      5-min Rain = 0
KWA1 091359Z 05004KT 00/M02 A3013 RMK A01 T00031019  RH  085%=      5-min Rain = 0
KWA1 091400Z 05004KT 00/M02 A3013 RMK A01 T00031020  RH  085%=      5-min Rain = 0
KWA1 091401Z 05004KT 00/M02 A3013 RMK A01 T00031020  RH  085%=      5-min Rain = 0
KWA1 091402Z 05004KT 00/M02 A3013 RMK A01 T00031020  RH  084%=      5-min Rain = 0
KWA1 091403Z 05004KT 00/M02 A3013 RMK A01 T00041020  RH  084%=      5-min Rain = 0
KWA1 091404Z 05004KT 00/M02 A3013 RMK A01 T00041019  RH  084%=      5-min Rain = 0
KWA1 091405Z 05004KT 00/M02 A3013 RMK A01 T00041020  RH  084%=      5-min Rain = 0
KWA1 091406Z 05004KT 01/M02 A3013 RMK A01 T00051020  RH  083%=      5-min Rain = 0
KWA1 091407Z 05004KT 01/M02 A3013 RMK A01 T00051021  RH  083%=      5-min Rain = 0
KWA1 091408Z 05004KT 01/M02 A3013 RMK A01 T00051021  RH  083%=      5-min Rain = 0
KWA1 091409Z 04003KT 00/M02 A3013 RMK A01 T00041021  RH  083%=      5-min Rain = 0
KWA1 091410Z 04003KT 01/M02 A3013 RMK A01 T00051020  RH  083%=      5-min Rain = 0
KWA1 091411Z 05004KT 01/M02 A3013 RMK A01 T00051020  RH  083%=      5-min Rain = 0
KWA1 091412Z 05004KT 01/M02 A3013 RMK A01 T00061019  RH  083%=      5-min Rain = 0
KWA1 091413Z 05004KT 01/M02 A3013 RMK A01 T00071018  RH  083%=      5-min Rain = 0
KWA1 091414Z 05004KT 01/M02 A3013 RMK A01 T00081017  RH  083%=      5-min Rain = 0
KWA1 091415Z 05003KT 01/M02 A3013 RMK A01 T00091016  RH  084%=      5-min Rain = 0
KWA1 091416Z 05004KT 01/M02 A3012 RMK A01 T00101015  RH  084%=      5-min Rain = 0
KWA1 091417Z 05004KT 01/M01 A3012 RMK A01 T00111014  RH  083%=      5-min Rain = 0
KWA1 091418Z 05004KT 01/M01 A3012 RMK A01 T00111014  RH  083%=      5-min Rain = 0
KWA1 091419Z 05004KT 01/M01 A3012 RMK A01 T00111014  RH  083%=      5-min Rain = 0
KWA1 091420Z 05004KT 01/M01 A3012 RMK A01 T00121013  RH  083%=      5-min Rain = 0
KWA1 091421Z 04004KT 01/M01 A3012 RMK A01 T00131013  RH  083%=      5-min Rain = 0
KWA1 091422Z 04004KT 01/M01 A3012 RMK A01 T00141012  RH  083%=      5-min Rain = 0
KWA1 091423Z 04004KT 02/M01 A3013 RMK A01 T00151011  RH  083%=      5-min Rain = 0
KWA1 091424Z 04004KT 02/M01 A3012 RMK A01 T00171009  RH  083%=      5-min Rain = 0
KWA1 091425Z 04003KT 02/M01 A3013 RMK A01 T00181008  RH  083%=      5-min Rain = 0
KWA1 091426Z 04003KT 02/M01 A3013 RMK A01 T00201007  RH  083%=      5-min Rain = 0
KWA1 091427Z 04003KT 02/M01 A3013 RMK A01 T00221006  RH  082%=      5-min Rain = 0
KWA1 091428Z 04003KT 02/M01 A3013 RMK A01 T00231006  RH  081%=      5-min Rain = 0
KWA1 091429Z 04003KT 02/M01 A3013 RMK A01 T00241006  RH  080%=      5-min Rain = 0
KWA1 091430Z 04003KT 03/M01 A3013 RMK A01 T00251005  RH  080%=      5-min Rain = 0
KWA1 091431Z 04003KT 03/M00 A3013 RMK A01 T00281003  RH  080%=      5-min Rain = 0
KWA1 091432Z 04003KT 03/M00 A3012 RMK A01 T00291003  RH  079%=      5-min Rain = 0
KWA1 091433Z 05002KT 03/M00 A3012 RMK A01 T00321001  RH  079%=      5-min Rain = 0
KWA1 091434Z 04003KT 04/00 A3012 RMK A01 T00350001  RH  079%=      5-min Rain = 0
KWA1 091435Z 04003KT 04/00 A3012 RMK A01 T00370000  RH  077%=      5-min Rain = 0
KWA1 091436Z 04003KT 04/00 A3012 RMK A01 T003800-0  RH  076%=      5-min Rain = 0
KWA1 091437Z 05002KT 04/00 A3012 RMK A01 T00390001  RH  076%=      5-min Rain = 0
KWA1 091438Z 05002KT 04/00 A3012 RMK A01 T00400001  RH  076%=      5-min Rain = 0
KWA1 091439Z 06002KT 04/00 A3012 RMK A01 T00420002  RH  076%=      5-min Rain = 0
KWA1 091440Z 06002KT 04/00 A3012 RMK A01 T00430003  RH  075%=      5-min Rain = 0
KWA1 091441Z 07001KT 04/00 A3012 RMK A01 T00440002  RH  074%=      5-min Rain = 0
KWA1 091442Z 08002KT 05/00 A3012 RMK A01 T00450002  RH  074%=      5-min Rain = 0
KWA1 091443Z 06002KT 05/00 A3012 RMK A01 T00460002  RH  073%=      5-min Rain = 0
KWA1 091444Z 06002KT 05/00 A3012 RMK A01 T00470003  RH  073%=      5-min Rain = 0
KWA1 091445Z 05002KT 05/00 A3012 RMK A01 T00480003  RH  072%=      5-min Rain = 0
KWA1 091446Z 05002KT 05/01 A3012 RMK A01 T00490005  RH  073%=      5-min Rain = 0
KWA1 091447Z 06002KT 05/00 A3012 RMK A01 T00510004  RH  072%=      5-min Rain = 0
KWA1 091448Z 05002KT 05/00 A3012 RMK A01 T00520003  RH  071%=      5-min Rain = 0
KWA1 091449Z 05001KT 05/00 A3012 RMK A01 T00520004  RH  071%=      5-min Rain = 0
KWA1 091450Z 05001KT 05/00 A3012 RMK A01 T00530004  RH  071%=      5-min Rain = 0
KWA1 091451Z 05001KT 05/00 A3012 RMK A01 T00530004  RH  070%=      5-min Rain = 0
KWA1 091452Z 05001KT 05/01 A3012 RMK A01 T00540008  RH  072%=      5-min Rain = 0
KWA1 091453Z 05002KT 06/01 A3012 RMK A01 T00560006  RH  070%=      5-min Rain = 0
KWA1 091454Z 05002KT 06/01 A3012 RMK A01 T00570006  RH  070%=      5-min Rain = 0
KWA1 091455Z 05002KT 06/01 A3012 RMK A01 T00590007  RH  069%=      5-min Rain = 0
KWA1 091456Z 05002KT 06/01 A3012 RMK A01 T00600008  RH  069%=      5-min Rain = 0
KWA1 091457Z 04002KT 06/01 A3012 RMK A01 T00610009  RH  069%=      5-min Rain = 0
KWA1 091458Z 04002KT 06/01 A3012 RMK A01 T00610006  RH  068%=      5-min Rain = 0
KWA1 091459Z 04002KT 06/00 A3012 RMK A01 T00620003  RH  066%=      5-min Rain = 0
KWA1 091500Z 03002KT 06/00 A3012 RMK A01 T00620002  RH  065%=      5-min Rain = 0
KWA1 091501Z 03002KT 06/00 A3012 RMK A01 T00620003  RH  066%=      5-min Rain = 0
KWA1 091502Z 03002KT 06/00 A3012 RMK A01 T00620001  RH  065%=      5-min Rain = 0
KWA1 091503Z 03002KT 06/00 A3012 RMK A01 T00620003  RH  066%=      5-min Rain = 0
KWA1 091504Z 03002KT 06/00 A3012 RMK A01 T00620004  RH  066%=      5-min Rain = 0
KWA1 091505Z 03002KT 06/00 A3012 RMK A01 T00620004  RH  066%=      5-min Rain = 0
KWA1 091506Z 03002KT 06/00 A3012 RMK A01 T00620004  RH  067%=      5-min Rain = 0
KWA1 091507Z 04002KT 06/01 A3012 RMK A01 T00630007  RH  068%=      5-min Rain = 0
KWA1 091508Z 05002KT 06/01 A3012 RMK A01 T00640008  RH  067%=      5-min Rain = 0
KWA1 091509Z 04003KT 07/01 A3012 RMK A01 T00650007  RH  066%=      5-min Rain = 0
KWA1 091510Z 04003KT 07/01 A3012 RMK A01 T00650006  RH  066%=      5-min Rain = 0
KWA1 091511Z 04002KT 07/01 A3012 RMK A01 T00660007  RH  066%=      5-min Rain = 0
KWA1 091512Z 04002KT 07/01 A3012 RMK A01 T00660006  RH  066%=      5-min Rain = 0
KWA1 091513Z 03001KT 07/01 A3012 RMK A01 T00670008  RH  066%=      5-min Rain = 0
KWA1 091514Z 05002KT 07/01 A3012 RMK A01 T00680009  RH  066%=      5-min Rain = 0
KWA1 091515Z 05002KT 07/01 A3012 RMK A01 T00680008  RH  065%=      5-min Rain = 0
KWA1 091516Z 06002KT 07/01 A3012 RMK A01 T00690008  RH  065%=      5-min Rain = 0
KWA1 091517Z 04002KT 07/01 A3012 RMK A01 T00700005  RH  063%=      5-min Rain = 0
KWA1 091518Z 03002KT 07/01 A3012 RMK A01 T00700006  RH  064%=      5-min Rain = 0
KWA1 091519Z 03002KT 07/01 A3012 RMK A01 T00710008  RH  064%=      5-min Rain = 0
KWA1 091520Z 02002KT 07/01 A3012 RMK A01 T00710005  RH  063%=      5-min Rain = 0
KWA1 091521Z 02003KT 07/01 A3012 RMK A01 T00710005  RH  063%=      5-min Rain = 0
KWA1 091522Z 02003KT 07/01 A3012 RMK A01 T00710007  RH  064%=      5-min Rain = 0
KWA1 091523Z 03003KT 07/01 A3012 RMK A01 T00730009  RH  064%=      5-min Rain = 0
KWA1 091524Z 03002KT 07/01 A3012 RMK A01 T00740010  RH  064%=      5-min Rain = 0
KWA1 091525Z 05002KT 08/01 A3012 RMK A01 T00750010  RH  063%=      5-min Rain = 0
KWA1 091526Z 04002KT 08/01 A3012 RMK A01 T00750010  RH  063%=      5-min Rain = 0
KWA1 091527Z 03002KT 08/01 A3012 RMK A01 T00770013  RH  064%=      5-min Rain = 0
KWA1 091528Z 06002KT 08/01 A3012 RMK A01 T00780011  RH  062%=      5-min Rain = 0
KWA1 091529Z 06001KT 08/02 A3012 RMK A01 T00790015  RH  064%=      5-min Rain = 0
KWA1 091530Z 03003KT 08/02 A3012 RMK A01 T00810015  RH  063%=      5-min Rain = 0
KWA1 091531Z 04003KT 08/01 A3012 RMK A01 T00820013  RH  062%=      5-min Rain = 0
KWA1 091532Z 04003KT 08/01 A3012 RMK A01 T00830013  RH  061%=      5-min Rain = 0
KWA1 091533Z 04003KT 08/01 A3012 RMK A01 T00840011  RH  060%=      5-min Rain = 0
KWA1 091534Z 03003KT 09/01 A3012 RMK A01 T00850013  RH  060%=      5-min Rain = 0
KWA1 091535Z 04003KT 09/01 A3012 RMK A01 T00870012  RH  059%=      5-min Rain = 0
KWA1 091536Z 04003KT 09/01 A3012 RMK A01 T00870012  RH  059%=      5-min Rain = 0
KWA1 091537Z 04003KT 09/01 A3012 RMK A01 T00880013  RH  059%=      5-min Rain = 0
KWA1 091538Z 05003KT 09/01 A3012 RMK A01 T00880011  RH  058%=      5-min Rain = 0
KWA1 091539Z 04003KT 09/01 A3012 RMK A01 T00880012  RH  059%=      5-min Rain = 0
KWA1 091540Z 05003KT 09/01 A3012 RMK A01 T00890012  RH  059%=      5-min Rain = 0
KWA1 091541Z 04003KT 09/01 A3012 RMK A01 T00900014  RH  059%=      5-min Rain = 0
KWA1 091542Z 04003KT 09/01 A3012 RMK A01 T00900012  RH  058%=      5-min Rain = 0
KWA1 091543Z 04003KT 09/02 A3012 RMK A01 T00910016  RH  060%=      5-min Rain = 0
KWA1 091544Z 04003KT 09/01 A3012 RMK A01 T00920014  RH  058%=      5-min Rain = 0
KWA1 091545Z 04003KT 09/01 A3012 RMK A01 T00920012  RH  057%=      5-min Rain = 0
KWA1 091546Z 04003KT 09/01 A3012 RMK A01 T00920014  RH  058%=      5-min Rain = 0
KWA1 091547Z 03003KT 09/01 A3012 RMK A01 T00920014  RH  058%=      5-min Rain = 0
KWA1 091548Z 02003KT 09/02 A3012 RMK A01 T00930015  RH  058%=      5-min Rain = 0
KWA1 091549Z 03003KT 09/02 A3012 RMK A01 T00940016  RH  058%=      5-min Rain = 0
KWA1 091550Z 03003KT 10/02 A3012 RMK A01 T00950015  RH  057%=      5-min Rain = 0
KWA1 091551Z 02004KT 10/01 A3012 RMK A01 T00950014  RH  057%=      5-min Rain = 0
KWA1 091552Z 02004KT 10/02 A3012 RMK A01 T00960015  RH  057%=      5-min Rain = 0
KWA1 091553Z 02003KT 10/02 A3012 RMK A01 T00960016  RH  057%=      5-min Rain = 0
KWA1 091554Z 02004KT 10/02 A3012 RMK A01 T00960018  RH  058%=      5-min Rain = 0
KWA1 091555Z 02004KT 10/02 A3012 RMK A01 T00970018  RH  058%=      5-min Rain = 0
KWA1 091556Z 01004KT 10/02 A3012 RMK A01 T00980018  RH  058%=      5-min Rain = 0
KWA1 091557Z 00003KT 10/02 A3012 RMK A01 T00980018  RH  057%=      5-min Rain = 0
KWA1 091558Z 02003KT 10/02 A3012 RMK A01 T00990017  RH  057%=      5-min Rain = 0
KWA1 091559Z 02003KT 10/02 A3012 RMK A01 T00990019  RH  057%=      5-min Rain = 0
KWA1 091600Z 01003KT 10/02 A3012 RMK A01 T01000019  RH  057%=      5-min Rain = 0
KWA1 091601Z 02002KT 10/02 A3012 RMK A01 T01010018  RH  056%=      5-min Rain = 0
KWA1 091602Z 04003KT 10/02 A3012 RMK A01 T01030021  RH  057%=      5-min Rain = 0
KWA1 091603Z 03003KT 10/02 A3012 RMK A01 T01040019  RH  056%=      5-min Rain = 0
KWA1 091604Z 02003KT 10/02 A3012 RMK A01 T01040019  RH  056%=      5-min Rain = 0
KWA1 091605Z 03003KT 10/02 A3012 RMK A01 T01040019  RH  056%=      5-min Rain = 0
KWA1 091606Z 04003KT 10/02 A3012 RMK A01 T01040018  RH  055%=      5-min Rain = 0
KWA1 091607Z 03003KT 11/02 A3012 RMK A01 T01050020  RH  056%=      5-min Rain = 0
KWA1 091608Z 03004KT 11/02 A3012 RMK A01 T01070020  RH  055%=      5-min Rain = 0
KWA1 091609Z 03003KT 11/02 A3012 RMK A01 T01080021  RH  055%=      5-min Rain = 0
KWA1 091610Z 03003KT 11/02 A3012 RMK A01 T01090022  RH  055%=      5-min Rain = 0
KWA1 091611Z 04004KT 11/02 A3012 RMK A01 T01100023  RH  055%=      5-min Rain = 0
KWA1 091612Z 05003KT 11/02 A3012 RMK A01 T01110022  RH  054%=      5-min Rain = 0
KWA1 091613Z 04003KT 11/02 A3012 RMK A01 T01120024  RH  055%=      5-min Rain = 0
KWA1 091614Z 04003KT 11/03 A3012 RMK A01 T01140025  RH  054%=      5-min Rain = 0
KWA1 091615Z 04002KT 12/02 A3012 RMK A01 T01150023  RH  053%=      5-min Rain = 0
KWA1 091616Z 04002KT 12/02 A3012 RMK A01 T01150020  RH  052%=      5-min Rain = 0
KWA1 091617Z 04002KT 12/02 A3012 RMK A01 T01150022  RH  053%=      5-min Rain = 0
KWA1 091618Z 06002KT 12/02 A3012 RMK A01 T01170024  RH  053%=      5-min Rain = 0
KWA1 091619Z 07001KT 12/02 A3012 RMK A01 T01180020  RH  051%=      5-min Rain = 0
KWA1 091620Z 05001KT 12/02 A3012 RMK A01 T01180021  RH  051%=      5-min Rain = 0
KWA1 091621Z 07001KT 12/02 A3012 RMK A01 T01190023  RH  052%=      5-min Rain = 0
KWA1 091622Z 06000KT 12/02 A3012 RMK A01 T01200020  RH  050%=      5-min Rain = 0
KWA1 091623Z 07000KT 12/02 A3012 RMK A01 T01210021  RH  050%=      5-min Rain = 0
KWA1 091624Z 07000KT 12/02 A3012 RMK A01 T01230022  RH  050%=      5-min Rain = 0
KWA1 091625Z 07000KT 12/02 A3012 RMK A01 T01240023  RH  050%=      5-min Rain = 0
KWA1 091626Z 02001KT 13/02 A3012 RMK A01 T01250023  RH  050%=      5-min Rain = 0
KWA1 091627Z 35001KT 13/02 A3012 RMK A01 T01250021  RH  049%=      5-min Rain = 0
KWA1 091628Z 01001KT 13/03 A3012 RMK A01 T01260025  RH  050%=      5-min Rain = 0
KWA1 091629Z 00002KT 13/03 A3012 RMK A01 T01280027  RH  050%=      5-min Rain = 0
KWA1 091630Z 01001KT 13/02 A3012 RMK A01 T01290024  RH  049%=      5-min Rain = 0
KWA1 091631Z 02000KT 13/02 A3012 RMK A01 T01290023  RH  048%=      5-min Rain = 0
KWA1 091632Z 00000KT 13/02 A3012 RMK A01 T01300022  RH  048%=      5-min Rain = 0
KWA1 091633Z 00000KT 13/02 A3012 RMK A01 T01310023  RH  048%=      5-min Rain = 0
KWA1 091634Z 04001KT 13/02 A3012 RMK A01 T01320022  RH  047%=      5-min Rain = 0
KWA1 091635Z 04001KT 13/03 A3012 RMK A01 T01340025  RH  048%=      5-min Rain = 0
KWA1 091636Z 05002KT 14/03 A3012 RMK A01 T01360027  RH  048%=      5-min Rain = 0
KWA1 091637Z 04002KT 14/03 A3012 RMK A01 T01370025  RH  047%=      5-min Rain = 0
KWA1 091638Z 05000KT 14/03 A3012 RMK A01 T01370027  RH  047%=      5-min Rain = 0
KWA1 091639Z 26001KT 14/03 A3012 RMK A01 T01390028  RH  047%=      5-min Rain = 0
KWA1 091640Z 28002KT 14/03 A3012 RMK A01 T01410027  RH  046%=      5-min Rain = 0
KWA1 091641Z 26002KT 14/03 A3012 RMK A01 T01430029  RH  046%=      5-min Rain = 0
KWA1 091642Z 22005KT 14/03 A3012 RMK A01 T01430030  RH  046%=      5-min Rain = 0
KWA1 091643Z 21010KT 15/03 A3012 RMK A01 T01510030  RH  044%=      5-min Rain = 0
KWA1 091644Z 23012KT 16/03 A3011 RMK A01 T01620028  RH  041%=      5-min Rain = 0
KWA1 091645Z 22012KT 17/03 A3011 RMK A01 T01670025  RH  038%=      5-min Rain = 0
KWA1 091646Z 21010KT 17/02 A3011 RMK A01 T01680022  RH  037%=      5-min Rain = 0
KWA1 091647Z 23009KT 17/03 A3011 RMK A01 T01710028  RH  038%=      5-min Rain = 0
KWA1 091648Z 23009KT 17/02 A3011 RMK A01 T01730023  RH  037%=      5-min Rain = 0
KWA1 091649Z 21010KT 17/02 A3011 RMK A01 T01720023  RH  037%=      5-min Rain = 0
KWA1 091650Z 21011KT 17/03 A3011 RMK A01 T01730026  RH  037%=      5-min Rain = 0
KWA1 091651Z 22010KT 17/03 A3011 RMK A01 T01740025  RH  037%=      5-min Rain = 0
KWA1 091652Z 22009KT 18/03 A3011 RMK A01 T01760028  RH  037%=      5-min Rain = 0
KWA1 091653Z 22009KT 18/03 A3011 RMK A01 T01780027  RH  036%=      5-min Rain = 0
KWA1 091654Z 21009KT 18/03 A3011 RMK A01 T01780025  RH  036%=      5-min Rain = 0
KWA1 091655Z 22011KT 18/03 A3011 RMK A01 T01800026  RH  036%=      5-min Rain = 0
KWA1 091656Z 23012KT 18/03 A3011 RMK A01 T01810025  RH  035%=      5-min Rain = 0
KWA1 091657Z 23014KT 18/02 A3011 RMK A01 T01810024  RH  035%=      5-min Rain = 0
KWA1 091658Z 22012KT 18/03 A3011 RMK A01 T01810025  RH  035%=      5-min Rain = 0
KWA1 091659Z 22013KT 18/03 A3011 RMK A01 T01830025  RH  035%=      5-min Rain = 0
KWA1 091700Z 22013KT 18/02 A3011 RMK A01 T01820020  RH  034%=      5-min Rain = 0
KWA1 091701Z 21012KT 18/02 A3011 RMK A01 T01810024  RH  035%=      5-min Rain = 0
KWA1 091702Z 21014KT 18/02 A3011 RMK A01 T01830022  RH  034%=      5-min Rain = 0
KWA1 091703Z 22012KT 18/02 A3011 RMK A01 T01830022  RH  034%=      5-min Rain = 0
KWA1 091704Z 22012KT 19/03 A3011 RMK A01 T01850026  RH  035%=      5-min Rain = 0
KWA1 091705Z 23014KT 19/02 A3011 RMK A01 T01850024  RH  034%=      5-min Rain = 0
KWA1 091706Z 23015KT 19/02 A3011 RMK A01 T01850021  RH  033%=      5-min Rain = 0
KWA1 091707Z 22015KT 18/02 A3011 RMK A01 T01830020  RH  033%=      5-min Rain = 0
KWA1 091708Z 22014KT 18/02 A3011 RMK A01 T01820020  RH  034%=      5-min Rain = 0
KWA1 091709Z 23015KT 18/02 A301 RMK A01 T01830023  RH  034%=      5-min Rain = 0
KWA1 091710Z 23017KT 18/02 A301 RMK A01 T01840021  RH  033%=      5-min Rain = 0
KWA1 091711Z 22015KT 18/02 A301 RMK A01 T01840020  RH  033%=      5-min Rain = 0
KWA1 091712Z 22015KT 18/02 A301 RMK A01 T01830019  RH  033%=      5-min Rain = 0
KWA1 091713Z 22014KT 18/02 A301 RMK A01 T01830019  RH  033%=      5-min Rain = 0
KWA1 091714Z 23015KT 18/02 A301 RMK A01 T01830019  RH  033%=      5-min Rain = 0
KWA1 091715Z 23013KT 18/02 A301 RMK A01 T01840019  RH  033%=      5-min Rain = 0
KWA1 091716Z 23014KT 18/02 A301 RMK A01 T01840020  RH  034%=      5-min Rain = 0
KWA1 091717Z 22013KT 19/02 A301 RMK A01 T01850020  RH  033%=      5-min Rain = 0
KWA1 091718Z 22012KT 19/02 A301 RMK A01 T01850019  RH  033%=      5-min Rain = 0
KWA1 091719Z 21015KT 19/02 A301 RMK A01 T01850020  RH  033%=      5-min Rain = 0
KWA1 091720Z 22015KT 19/02 A301 RMK A01 T01860019  RH  033%=      5-min Rain = 0
KWA1 091721Z 22014KT 19/02 A301 RMK A01 T01850018  RH  033%=      5-min Rain = 0
KWA1 091722Z 21012KT 19/02 A301 RMK A01 T01860019  RH  033%=      5-min Rain = 0
KWA1 091723Z 22011KT 19/02 A301 RMK A01 T01870021  RH  033%=      5-min Rain = 0
KWA1 091724Z 22013KT 19/02 A301 RMK A01 T01880021  RH  033%=      5-min Rain = 0
KWA1 091725Z 22011KT 19/02 A3009 RMK A01 T01890020  RH  032%=      5-min Rain = 0
KWA1 091726Z 21013KT 19/02 A3009 RMK A01 T01890020  RH  032%=      5-min Rain = 0
KWA1 091727Z 21014KT 19/02 A3009 RMK A01 T01890018  RH  032%=      5-min Rain = 0
KWA1 091728Z 21014KT 19/02 A3009 RMK A01 T01900019  RH  032%=      5-min Rain = 0
KWA1 091729Z 22013KT 19/02 A3009 RMK A01 T01900016  RH  031%=      5-min Rain = 0
KWA1 091730Z 22012KT 19/02 A3009 RMK A01 T01870018  RH  032%=      5-min Rain = 0
KWA1 091731Z 21014KT 19/02 A3009 RMK A01 T01880019  RH  032%=      5-min Rain = 0
KWA1 091732Z 22012KT 19/02 A3009 RMK A01 T01890018  RH  032%=      5-min Rain = 0
KWA1 091733Z 21012KT 19/02 A3009 RMK A01 T01880018  RH  032%=      5-min Rain = 0
KWA1 091734Z 20013KT 19/02 A3009 RMK A01 T01900021  RH  032%=      5-min Rain = 0
KWA1 091735Z 22012KT 19/02 A3009 RMK A01 T01920021  RH  032%=      5-min Rain = 0
KWA1 091736Z 23012KT 19/02 A3009 RMK A01 T01940018  RH  031%=      5-min Rain = 0
KWA1 091737Z 23014KT 20/02 A3009 RMK A01 T01950019  RH  031%=      5-min Rain = 0
KWA1 091738Z 22013KT 20/02 A3009 RMK A01 T01950018  RH  031%=      5-min Rain = 0
KWA1 091739Z 22011KT 19/02 A3009 RMK A01 T01940015  RH  030%=      5-min Rain = 0
KWA1 091740Z 21010KT 19/02 A3009 RMK A01 T01940020  RH  031%=      5-min Rain = 0
KWA1 091741Z 21010KT 20/02 A3009 RMK A01 T01950019  RH  031%=      5-min Rain = 0
KWA1 091742Z 23011KT 20/02 A3008 RMK A01 T01970022  RH  031%=      5-min Rain = 0
KWA1 091743Z 22012KT 20/02 A3008 RMK A01 T01990019  RH  030%=      5-min Rain = 0
KWA1 091744Z 23011KT 20/02 A3008 RMK A01 T02000020  RH  030%=      5-min Rain = 0
KWA1 091745Z 22010KT 20/02 A3008 RMK A01 T02000021  RH  030%=      5-min Rain = 0
KWA1 091746Z 23011KT 20/02 A3008 RMK A01 T02020018  RH  029%=      5-min Rain = 0
KWA1 091747Z 22012KT 20/02 A3008 RMK A01 T02000019  RH  030%=      5-min Rain = 0
KWA1 091748Z 21012KT 20/02 A3008 RMK A01 T02010020  RH  030%=      5-min Rain = 0
KWA1 091749Z 22014KT 20/02 A3008 RMK A01 T02030022  RH  030%=      5-min Rain = 0
KWA1 091750Z 22014KT 20/02 A3008 RMK A01 T02020016  RH  029%=      5-min Rain = 0
KWA1 091751Z 22013KT 20/02 A3008 RMK A01 T02000016  RH  029%=      5-min Rain = 0
KWA1 091752Z 21009KT 20/02 A3008 RMK A01 T02000017  RH  030%=      5-min Rain = 0
KWA1 091753Z 21010KT 20/02 A3008 RMK A01 T02020023  RH  031%=      5-min Rain = 0
KWA1 091754Z 21011KT 21/02 A3008 RMK A01 T02050021  RH  029%=      5-min Rain = 0
KWA1 091755Z 21010KT 20/02 A3008 RMK A01 T02030017  RH  029%=      5-min Rain = 0
KWA1 091756Z 22010KT 20/02 A3008 RMK A01 T02020018  RH  029%=      5-min Rain = 0
KWA1 091757Z 21011KT 20/02 A3007 RMK A01 T02030021  RH  030%=      5-min Rain = 0
KWA1 091758Z 22012KT 20/02 A3007 RMK A01 T02030018  RH  029%=      5-min Rain = 0
KWA1 091759Z 22012KT 21/02 A3007 RMK A01 T02050021  RH  030%=      5-min Rain = 0
KWA1 091800Z 22012KT 21/02 A3007 RMK A01 T02070020  RH  029%=      5-min Rain = 0
KWA1 091801Z 22012KT 21/02 A3007 RMK A01 T02080017  RH  028%=      5-min Rain = 0
KWA1 091802Z 22012G17KT 21/02 A3007 RMK A01 T02060018  RH  029%=      5-min Rain = 0
KWA1 091803Z 22014KT 21/02 A3007 RMK A01 T02060018  RH  029%=      5-min Rain = 0
KWA1 091804Z 22014KT 21/02 A3007 RMK A01 T02060015  RH  028%=      5-min Rain = 0
KWA1 091805Z 22013KT 21/02 A3007 RMK A01 T02050016  RH  028%=      5-min Rain = 0
KWA1 091806Z 22013KT 21/02 A3007 RMK A01 T02050016  RH  029%=      5-min Rain = 0
KWA1 091807Z 23013KT 21/02 A3007 RMK A01 T02050018  RH  029%=      5-min Rain = 0
KWA1 091808Z 22013KT 21/02 A3007 RMK A01 T02060019  RH  029%=      5-min Rain = 0
KWA1 091809Z 23013KT 21/02 A3007 RMK A01 T02070020  RH  029%=      5-min Rain = 0
KWA1 091810Z 22013KT 21/02 A3007 RMK A01 T02080018  RH  028%=      5-min Rain = 0
KWA1 091811Z 23012KT 21/02 A3007 RMK A01 T02080017  RH  028%=      5-min Rain = 0
KWA1 091812Z 22014KT 21/02 A3007 RMK A01 T02070016  RH  028%=      5-min Rain = 0
KWA1 091813Z 21014KT 21/01 A3007 RMK A01 T02060014  RH  028%=      5-min Rain = 0
KWA1 091814Z 20012KT 21/02 A3007 RMK A01 T02050015  RH  028%=      5-min Rain = 0
KWA1 091815Z 21013KT 21/02 A3006 RMK A01 T02050016  RH  028%=      5-min Rain = 0
KWA1 091816Z 22012KT 21/02 A3006 RMK A01 T02050015  RH  028%=      5-min Rain = 0
KWA1 091817Z 22010KT 20/02 A3006 RMK A01 T02040015  RH  028%=      5-min Rain = 0
KWA1 091818Z 21009KT 20/02 A3006 RMK A01 T02030016  RH  029%=      5-min Rain = 0
KWA1 091819Z 20012KT 20/02 A3006 RMK A01 T02040018  RH  029%=      5-min Rain = 0
KWA1 091820Z 21010KT 21/02 A3006 RMK A01 T02050016  RH  029%=      5-min Rain = 0
KWA1 091821Z 21011KT 21/02 A3006 RMK A01 T02050019  RH  029%=      5-min Rain = 0
KWA1 091822Z 20015KT 21/02 A3005 RMK A01 T02070020  RH  029%=      5-min Rain = 0
KWA1 091823Z 21012KT 21/02 A3005 RMK A01 T02090017  RH  028%=      5-min Rain = 0
KWA1 091824Z 22013KT 21/02 A3005 RMK A01 T02080017  RH  028%=      5-min Rain = 0
KWA1 091825Z 22014G19KT 21/02 A3005 RMK A01 T02090019  RH  028%=      5-min Rain = 0
KWA1 091826Z 22011KT 21/02 A3005 RMK A01 T02100015  RH  027%=      5-min Rain = 0
KWA1 091827Z 20009KT 21/02 A3005 RMK A01 T02080016  RH  028%=      5-min Rain = 0
KWA1 091828Z 21010KT 21/02 A3005 RMK A01 T02100021  RH  029%=      5-min Rain = 0
KWA1 091829Z 21010KT 21/02 A3005 RMK A01 T02140021  RH  028%=      5-min Rain = 0
KWA1 091830Z 22011KT 22/02 A3005 RMK A01 T02150021  RH  028%=      5-min Rain = 0
KWA1 091831Z 20013KT 22/02 A3004 RMK A01 T02170020  RH  027%=      5-min Rain = 0
KWA1 091832Z 21010KT 22/02 A3004 RMK A01 T02160020  RH  027%=      5-min Rain = 0
KWA1 091833Z 23011KT 22/02 A3004 RMK A01 T02170022  RH  028%=      5-min Rain = 0
KWA1 091834Z 24014KT 22/02 A3004 RMK A01 T02180017  RH  026%=      5-min Rain = 0
KWA1 091835Z 21010KT 22/02 A3004 RMK A01 T02160020  RH  027%=      5-min Rain = 0
KWA1 091836Z 20013KT 22/02 A3004 RMK A01 T02170021  RH  027%=      5-min Rain = 0
KWA1 091837Z 22010KT 22/02 A3004 RMK A01 T02170020  RH  027%=      5-min Rain = 0
KWA1 091838Z 23013KT 22/02 A3004 RMK A01 T02170020  RH  027%=      5-min Rain = 0
KWA1 091839Z 23015KT 22/02 A3004 RMK A01 T02180017  RH  027%=      5-min Rain = 0
KWA1 091840Z 23013KT 22/02 A3004 RMK A01 T02150018  RH  027%=      5-min Rain = 0
KWA1 091841Z 22013KT 22/02 A3004 RMK A01 T02150020  RH  027%=      5-min Rain = 0
KWA1 091842Z 23013G18KT 22/02 A3004 RMK A01 T02180021  RH  027%=      5-min Rain = 0
KWA1 091843Z 22014KT 22/02 A3003 RMK A01 T02190019  RH  027%=      5-min Rain = 0
KWA1 091844Z 21014KT 22/02 A3003 RMK A01 T02190019  RH  027%=      5-min Rain = 0
KWA1 091845Z 22014KT 22/02 A3003 RMK A01 T02180018  RH  027%=      5-min Rain = 0
KWA1 091846Z 22013KT 22/02 A3003 RMK A01 T02180018  RH  027%=      5-min Rain = 0
KWA1 091847Z 22012KT 22/02 A3003 RMK A01 T02180020  RH  027%=      5-min Rain = 0
KWA1 091848Z 23015KT 22/02 A3003 RMK A01 T02200020  RH  027%=      5-min Rain = 0
KWA1 091849Z 22013KT 22/02 A3003 RMK A01 T02210019  RH  026%=      5-min Rain = 0
KWA1 091850Z 23014KT 22/02 A3003 RMK A01 T02180016  RH  026%=      5-min Rain = 0
KWA1 091851Z 21011KT 22/02 A3003 RMK A01 T02160018  RH  027%=      5-min Rain = 0
KWA1 091852Z 20015KT 22/02 A3003 RMK A01 T02200019  RH  027%=      5-min Rain = 0
KWA1 091853Z 22015KT 22/02 A3003 RMK A01 T02200019  RH  026%=      5-min Rain = 0
KWA1 091854Z 22015KT 22/02 A3003 RMK A01 T02210020  RH  027%=      5-min Rain = 0
KWA1 091855Z 21015KT 22/02 A3002 RMK A01 T02220018  RH  026%=      5-min Rain = 0
KWA1 091856Z 22014KT 22/02 A3002 RMK A01 T02220019  RH  026%=      5-min Rain = 0
KWA1 091857Z 23014KT 22/02 A3002 RMK A01 T02220019  RH  026%=      5-min Rain = 0
KWA1 091858Z 22014KT 22/02 A3002 RMK A01 T02220020  RH  026%=      5-min Rain = 0
KWA1 091859Z 21016KT 22/02 A3002 RMK A01 T02220018  RH  026%=      5-min Rain = 0
KWA1 091900Z 22013KT 22/02 A3002 RMK A01 T02210017  RH  026%=      5-min Rain = 0
KWA1 091901Z 20013KT 22/02 A3002 RMK A01 T02200018  RH  026%=      5-min Rain = 0
KWA1 091902Z 20013KT 22/02 A3002 RMK A01 T02210019  RH  026%=      5-min Rain = 0
KWA1 091903Z 21011KT 22/02 A3002 RMK A01 T02210020  RH  027%=      5-min Rain = 0
KWA1 091904Z 20014KT 22/02 A3002 RMK A01 T02230021  RH  026%=      5-min Rain = 0
KWA1 091905Z 20015KT 22/02 A3002 RMK A01 T02220018  RH  026%=      5-min Rain = 0
KWA1 091906Z 21011KT 22/02 A3002 RMK A01 T02180017  RH  026%=      5-min Rain = 0
KWA1 091907Z 21012KT 22/02 A3002 RMK A01 T02160017  RH  027%=      5-min Rain = 0
KWA1 091908Z 20014KT 22/02 A3001 RMK A01 T02150016  RH  027%=      5-min Rain = 0
KWA1 091909Z 21014KT 22/02 A3001 RMK A01 T02150016  RH  027%=      5-min Rain = 0
KWA1 091910Z 22014KT 22/02 A3001 RMK A01 T02160018  RH  027%=      5-min Rain = 0
KWA1 091911Z 22011KT 22/02 A3001 RMK A01 T02180020  RH  027%=      5-min Rain = 0
KWA1 091912Z 22014KT 22/02 A3001 RMK A01 T02200020  RH  027%=      5-min Rain = 0
KWA1 091913Z 21014KT 22/02 A3001 RMK A01 T02220020  RH  026%=      5-min Rain = 0
KWA1 091914Z 22013KT 22/02 A3001 RMK A01 T02210019  RH  026%=      5-min Rain = 0
KWA1 091915Z 22015KT 22/02 A3001 RMK A01 T02190018  RH  026%=      5-min Rain = 0
KWA1 091916Z 22014KT 22/02 A3001 RMK A01 T02170017  RH  027%=      5-min Rain = 0
KWA1 091917Z 22013KT 22/02 A3001 RMK A01 T02160018  RH  027%=      5-min Rain = 0
KWA1 091918Z 22014KT 22/02 A30 RMK A01 T02200020  RH  027%=      5-min Rain = 0
KWA1 091919Z 23014KT 22/02 A30 RMK A01 T02230020  RH  026%=      5-min Rain = 0
KWA1 091920Z 22014KT 22/02 A30 RMK A01 T02230020  RH  026%=      5-min Rain = 0
KWA1 091921Z 21011KT 23/02 A30 RMK A01 T02250021  RH  026%=      5-min Rain = 0
KWA1 091922Z 21014KT 23/02 A30 RMK A01 T02260021  RH  026%=      5-min Rain = 0
KWA1 091923Z 22013KT 23/02 A30 RMK A01 T02260018  RH  026%=      5-min Rain = 0
KWA1 091924Z 22016KT 22/02 A30 RMK A01 T02230020  RH  026%=      5-min Rain = 0
KWA1 091925Z 21015KT 22/02 A30 RMK A01 T02240018  RH  026%=      5-min Rain = 0
KWA1 091926Z 22015KT 22/02 A30 RMK A01 T02240019  RH  026%=      5-min Rain = 0
KWA1 091927Z 22016KT 22/02 A30 RMK A01 T02240018  RH  026%=      5-min Rain = 0
KWA1 091928Z 23014KT 22/02 A30 RMK A01 T02240017  RH  026%=      5-min Rain = 0
KWA1 091929Z 23015KT 22/02 A30 RMK A01 T02220018  RH  026%=      5-min Rain = 0
KWA1 091930Z 22013KT 22/02 A30 RMK A01 T02230019  RH  026%=      5-min Rain = 0
KWA1 091931Z 22014KT 22/02 A30 RMK A01 T02240019  RH  026%=      5-min Rain = 0
KWA1 091932Z 22013KT 23/02 A2999 RMK A01 T02250020  RH  026%=      5-min Rain = 0
KWA1 091933Z 22014KT 23/02 A2999 RMK A01 T02250020  RH  026%=      5-min Rain = 0
KWA1 091934Z 21012KT 23/02 A2999 RMK A01 T02250020  RH  026%=      5-min Rain = 0
KWA1 091935Z 22013KT 23/02 A2999 RMK A01 T02250021  RH  026%=      5-min Rain = 0
KWA1 091936Z 20017KT 23/02 A2999 RMK A01 T02260020  RH  026%=      5-min Rain = 0
KWA1 091937Z 19016KT 23/02 A2999 RMK A01 T02250019  RH  026%=      5-min Rain = 0
KWA1 091938Z 19015KT 23/02 A2999 RMK A01 T02250019  RH  026%=      5-min Rain = 0
KWA1 091939Z 19014KT 23/02 A2999 RMK A01 T02270020  RH  026%=      5-min Rain = 0
KWA1 091940Z 20015KT 23/02 A2998 RMK A01 T02280019  RH  025%=      5-min Rain = 0
KWA1 091941Z 20017KT 23/02 A2998 RMK A01 T02290019  RH  025%=      5-min Rain = 0
KWA1 091942Z 20015KT 23/02 A2998 RMK A01 T02290018  RH  025%=      5-min Rain = 0
KWA1 091943Z 19014KT 23/02 A2998 RMK A01 T02280020  RH  025%=      5-min Rain = 0
KWA1 091944Z 20013KT 23/02 A2998 RMK A01 T02290019  RH  025%=      5-min Rain = 0
KWA1 091945Z 21012KT 23/02 A2998 RMK A01 T02290022  RH  026%=      5-min Rain = 0
KWA1 091946Z 21013KT 23/02 A2998 RMK A01 T02320023  RH  025%=      5-min Rain = 0
KWA1 091947Z 22015KT 23/02 A2998 RMK A01 T02340022  RH  025%=      5-min Rain = 0
KWA1 091948Z 22016KT 23/02 A2998 RMK A01 T02330021  RH  025%=      5-min Rain = 0
KWA1 091949Z 21014KT 23/02 A2998 RMK A01 T02340022  RH  025%=      5-min Rain = 0
KWA1 091950Z 21010KT 23/02 A2998 RMK A01 T02330020  RH  025%=      5-min Rain = 0
KWA1 091951Z 19013KT 23/02 A2998 RMK A01 T02330022  RH  025%=      5-min Rain = 0
KWA1 091952Z 19014KT 23/02 A2998 RMK A01 T02330022  RH  025%=      5-min Rain = 0
KWA1 091953Z 20013KT 23/02 A2998 RMK A01 T02340022  RH  025%=      5-min Rain = 0
KWA1 091954Z 20012KT 23/02 A2998 RMK A01 T02340023  RH  025%=      5-min Rain = 0
KWA1 091955Z 19011KT 24/02 A2997 RMK A01 T02350021  RH  025%=      5-min Rain = 0
KWA1 091956Z 20011KT 23/02 A2997 RMK A01 T02330021  RH  025%=      5-min Rain = 0
KWA1 091957Z 21014G19KT 23/02 A2997 RMK A01 T02340023  RH  025%=      5-min Rain = 0
KWA1 091958Z 21017KT 24/02 A2997 RMK A01 T02360017  RH  024%=      5-min Rain = 0
KWA1 091959Z 22015KT 23/02 A2997 RMK A01 T02330016  RH  024%=      5-min Rain = 0
KWA1 092000Z 22013KT 23/02 A2997 RMK A01 T02340018  RH  024%=      5-min Rain = 0
KWA1 092001Z 21012KT 23/02 A2997 RMK A01 T02340017  RH  024%=      5-min Rain = 0
KWA1 092002Z 22012KT 23/02 A2997 RMK A01 T02340019  RH  024%=      5-min Rain = 0
KWA1 092003Z 21013KT 24/02 A2997 RMK A01 T02370020  RH  024%=      5-min Rain = 0
KWA1 092004Z 22012KT 24/02 A2997 RMK A01 T02370018  RH  024%=      5-min Rain = 0
KWA1 092005Z 21014KT 24/02 A2997 RMK A01 T02360020  RH  024%=      5-min Rain = 0
KWA1 092006Z 20011KT 24/02 A2997 RMK A01 T02370020  RH  024%=      5-min Rain = 0
KWA1 092007Z 21014KT 24/02 A2997 RMK A01 T02380021  RH  024%=      5-min Rain = 0
KWA1 092008Z 22014KT 24/02 A2997 RMK A01 T02360018  RH  024%=      5-min Rain = 0
KWA1 092009Z 22015KT 24/02 A2997 RMK A01 T02350018  RH  024%=      5-min Rain = 0
KWA1 092010Z 22013KT 24/02 A2997 RMK A01 T02350019  RH  024%=      5-min Rain = 0
KWA1 092011Z 22013KT 24/02 A2997 RMK A01 T02350020  RH  024%=      5-min Rain = 0
KWA1 092012Z 23014KT 24/02 A2997 RMK A01 T02360020  RH  024%=      5-min Rain = 0
KWA1 092013Z 22012KT 24/02 A2997 RMK A01 T02350020  RH  024%=      5-min Rain = 0
KWA1 092014Z 21012KT 24/02 A2997 RMK A01 T02370020  RH  024%=      5-min Rain = 0
KWA1 092015Z 21014KT 24/02 A2997 RMK A01 T02370020  RH  024%=      5-min Rain = 0
KWA1 092016Z 22015KT 24/02 A2997 RMK A01 T02370019  RH  024%=      5-min Rain = 0
KWA1 092017Z 22013KT 24/02 A2997 RMK A01 T02370019  RH  024%=      5-min Rain = 0
KWA1 092018Z 22012KT 24/02 A2997 RMK A01 T02370020  RH  024%=      5-min Rain = 0
KWA1 092019Z 22011KT 24/02 A2997 RMK A01 T02380022  RH  024%=      5-min Rain = 0
KWA1 092020Z 23014KT 24/02 A2997 RMK A01 T02390022  RH  024%=      5-min Rain = 0
KWA1 092021Z 23015KT 24/02 A2997 RMK A01 T02390020  RH  024%=      5-min Rain = 0
KWA1 092022Z 23013KT 24/02 A2997 RMK A01 T02380021  RH  024%=      5-min Rain = 0
KWA1 092023Z 22013KT 24/02 A2997 RMK A01 T02380020  RH  024%=      5-min Rain = 0
KWA1 092024Z 22010KT 24/02 A2997 RMK A01 T02370021  RH  024%=      5-min Rain = 0
KWA1 092025Z 22012KT 24/02 A2997 RMK A01 T02370020  RH  024%=      5-min Rain = 0
KWA1 092026Z 21012KT 24/02 A2997 RMK A01 T02370019  RH  024%=      5-min Rain = 0
KWA1 092027Z 23011KT 24/02 A2997 RMK A01 T02380021  RH  024%=      5-min Rain = 0
KWA1 092028Z 23013KT 24/02 A2997 RMK A01 T02400021  RH  024%=      5-min Rain = 0
KWA1 092029Z 22011KT 24/02 A2997 RMK A01 T02390021  RH  024%=      5-min Rain = 0
KWA1 092030Z 20014KT 24/02 A2997 RMK A01 T02390022  RH  024%=      5-min Rain = 0
KWA1 092031Z 20013KT 24/02 A2997 RMK A01 T02380019  RH  024%=      5-min Rain = 0
KWA1 092032Z 20012KT 24/02 A2997 RMK A01 T02360019  RH  024%=      5-min Rain = 0
KWA1 092033Z 22013G19KT 24/02 A2997 RMK A01 T02370022  RH  024%=      5-min Rain = 0
KWA1 092034Z 22014KT 24/02 A2997 RMK A01 T02400021  RH  024%=      5-min Rain = 0
KWA1 092035Z 23011KT 24/02 A2997 RMK A01 T02410023  RH  024%=      5-min Rain = 0
KWA1 092036Z 22012KT 24/02 A2997 RMK A01 T02420022  RH  024%=      5-min Rain = 0
KWA1 092037Z 22015KT 24/02 A2996 RMK A01 T02420021  RH  023%=      5-min Rain = 0
KWA1 092038Z 21013KT 24/02 A2996 RMK A01 T02420021  RH  024%=      5-min Rain = 0
KWA1 092039Z 21014KT 24/02 A2996 RMK A01 T02410019  RH  023%=      5-min Rain = 0
KWA1 092040Z 21014KT 24/02 A2996 RMK A01 T02410020  RH  024%=      5-min Rain = 0
KWA1 092041Z 21013G18KT 24/02 A2996 RMK A01 T02400020  RH  024%=      5-min Rain = 0
KWA1 092042Z 22012KT 24/02 A2996 RMK A01 T02400020  RH  024%=      5-min Rain = 0
KWA1 092043Z 22012KT 24/02 A2996 RMK A01 T02400020  RH  024%=      5-min Rain = 0
KWA1 092044Z 21013KT 24/02 A2996 RMK A01 T02390020  RH  024%=      5-min Rain = 0
KWA1 092045Z 22012KT 24/02 A2996 RMK A01 T02400019  RH  024%=      5-min Rain = 0
KWA1 092046Z 23013KT 24/02 A2996 RMK A01 T02400022  RH  024%=      5-min Rain = 0
KWA1 092047Z 23016KT 24/02 A2996 RMK A01 T02410020  RH  024%=      5-min Rain = 0
KWA1 092048Z 22013KT 24/02 A2996 RMK A01 T02390018  RH  023%=      5-min Rain = 0
KWA1 092049Z 22012KT 24/02 A2996 RMK A01 T02390022  RH  024%=      5-min Rain = 0
KWA1 092050Z 22012KT 24/02 A2996 RMK A01 T02400019  RH  024%=      5-min Rain = 0
KWA1 092051Z 23015KT 24/02 A2996 RMK A01 T02390022  RH  024%=      5-min Rain = 0
KWA1 092052Z 22014KT 24/02 A2996 RMK A01 T02390021  RH  024%=      5-min Rain = 0
KWA1 092053Z 22011KT 24/02 A2996 RMK A01 T02400022  RH  024%=      5-min Rain = 0
KWA1 092054Z 23009KT 24/02 A2996 RMK A01 T02410024  RH  024%=      5-min Rain = 0
KWA1 092055Z 22013KT 24/03 A2996 RMK A01 T02420025  RH  024%=      5-min Rain = 0
KWA1 092056Z 21014KT 24/02 A2996 RMK A01 T02410021  RH  024%=      5-min Rain = 0
KWA1 092057Z 22013KT 24/02 A2996 RMK A01 T02390020  RH  024%=      5-min Rain = 0
KWA1 092058Z 21011G16KT 24/02 A2996 RMK A01 T02380021  RH  024%=      5-min Rain = 0
KWA1 092059Z 20010KT 24/02 A2996 RMK A01 T02390022  RH  024%=      5-min Rain = 0
KWA1 092100Z 20013KT 24/02 A2996 RMK A01 T02410023  RH  024%=      5-min Rain = 0
KWA1 092101Z 21012KT 24/02 A2996 RMK A01 T02410021  RH  024%=      5-min Rain = 0
KWA1 092102Z 22014KT 24/02 A2996 RMK A01 T02410019  RH  023%=      5-min Rain = 0
KWA1 092103Z 21016KT 24/02 A2996 RMK A01 T02400019  RH  024%=      5-min Rain = 0
KWA1 092104Z 21011G17KT 24/02 A2996 RMK A01 T02390017  RH  023%=      5-min Rain = 0
KWA1 092105Z 23012KT 24/02 A2996 RMK A01 T02380021  RH  024%=      5-min Rain = 0
KWA1 092106Z 22012KT 24/02 A2996 RMK A01 T02390021  RH  024%=      5-min Rain = 0
KWA1 092107Z 22014KT 24/02 A2996 RMK A01 T02380020  RH  024%=      5-min Rain = 0
KWA1 092108Z 21014KT 24/02 A2996 RMK A01 T02370020  RH  024%=      5-min Rain = 0
KWA1 092109Z 21015KT 24/02 A2996 RMK A01 T02370020  RH  024%=      5-min Rain = 0
KWA1 092110Z 22012KT 24/02 A2996 RMK A01 T02370019  RH  024%=      5-min Rain = 0
KWA1 092111Z 22008KT 24/02 A2996 RMK A01 T02370021  RH  024%=      5-min Rain = 0
KWA1 092112Z 21011KT 24/02 A2996 RMK A01 T02380021  RH  024%=      5-min Rain = 0
KWA1 092113Z 21014KT 24/02 A2996 RMK A01 T02380019  RH  024%=      5-min Rain = 0
KWA1 092114Z 20013KT 24/02 A2996 RMK A01 T02380019  RH  024%=      5-min Rain = 0
KWA1 092115Z 22012KT 24/02 A2996 RMK A01 T02380020  RH  024%=      5-min Rain = 0
KWA1 092116Z 22012KT 24/02 A2996 RMK A01 T02380020  RH  024%=      5-min Rain = 0
KWA1 092117Z 23012KT 24/02 A2996 RMK A01 T02380021  RH  024%=      5-min Rain = 0
KWA1 092118Z 23012KT 24/02 A2996 RMK A01 T02390023  RH  024%=      5-min Rain = 0
KWA1 092119Z 21017KT 24/02 A2996 RMK A01 T02400021  RH  024%=      5-min Rain = 0
KWA1 092120Z 22014KT 24/02 A2996 RMK A01 T02400019  RH  024%=      5-min Rain = 0
KWA1 092121Z 22014KT 24/02 A2996 RMK A01 T02390019  RH  024%=      5-min Rain = 0
KWA1 092122Z 21012KT 24/02 A2996 RMK A01 T02380019  RH  024%=      5-min Rain = 0
KWA1 092123Z 23014KT 24/02 A2996 RMK A01 T02390021  RH  024%=      5-min Rain = 0
KWA1 092124Z 22012KT 24/02 A2996 RMK A01 T02390020  RH  024%=      5-min Rain = 0
KWA1 092125Z 21013KT 24/02 A2996 RMK A01 T02390020  RH  024%=      5-min Rain = 0
KWA1 092126Z 22011KT 24/02 A2996 RMK A01 T02390021  RH  024%=      5-min Rain = 0
KWA1 092127Z 22013KT 24/02 A2995 RMK A01 T02420022  RH  024%=      5-min Rain = 0
KWA1 092128Z 21012KT 24/02 A2995 RMK A01 T02420022  RH  024%=      5-min Rain = 0
KWA1 092129Z 20012KT 24/02 A2995 RMK A01 T02410023  RH  024%=      5-min Rain = 0
KWA1 092130Z 20015KT 24/02 A2995 RMK A01 T02420022  RH  024%=      5-min Rain = 0
KWA1 092131Z 20015KT 24/02 A2995 RMK A01 T02400020  RH  024%=      5-min Rain = 0
KWA1 092132Z 20016KT 24/02 A2995 RMK A01 T02380020  RH  024%=      5-min Rain = 0
KWA1 092133Z 21014KT 24/02 A2995 RMK A01 T02380021  RH  024%=      5-min Rain = 0
KWA1 092134Z 19012KT 24/02 A2995 RMK A01 T02380022  RH  024%=      5-min Rain = 0
KWA1 092135Z 21013KT 24/02 A2995 RMK A01 T02390021  RH  024%=      5-min Rain = 0
KWA1 092136Z 20012KT 24/02 A2995 RMK A01 T02380020  RH  024%=      5-min Rain = 0
KWA1 092137Z 20012KT 24/02 A2995 RMK A01 T02370022  RH  024%=      5-min Rain = 0
KWA1 092138Z 20014KT 24/02 A2995 RMK A01 T02380022  RH  024%=      5-min Rain = 0
KWA1 092139Z 19013KT 24/02 A2995 RMK A01 T02380021  RH  024%=      5-min Rain = 0
KWA1 092140Z 20013KT 24/02 A2995 RMK A01 T02380022  RH  024%=      5-min Rain = 0
KWA1 092141Z 21016KT 24/02 A2995 RMK A01 T02390022  RH  024%=      5-min Rain = 0
KWA1 092142Z 21015KT 24/02 A2995 RMK A01 T02390021  RH  024%=      5-min Rain = 0
KWA1 092143Z 22014KT 24/02 A2995 RMK A01 T02380020  RH  024%=      5-min Rain = 0
KWA1 092144Z 23012KT 24/02 A2995 RMK A01 T02360020  RH  024%=      5-min Rain = 0
KWA1 092145Z 22012KT 24/02 A2995 RMK A01 T02360021  RH  024%=      5-min Rain = 0
KWA1 092146Z 21017KT 24/02 A2995 RMK A01 T02370020  RH  024%=      5-min Rain = 0
KWA1 092147Z 21015KT 24/02 A2995 RMK A01 T02370020  RH  024%=      5-min Rain = 0
KWA1 092148Z 21014KT 24/02 A2995 RMK A01 T02370020  RH  024%=      5-min Rain = 0
KWA1 092149Z 20013KT 24/02 A2995 RMK A01 T02370021  RH  024%=      5-min Rain = 0
KWA1 092150Z 20014KT 24/02 A2995 RMK A01 T02380021  RH  024%=      5-min Rain = 0
KWA1 092151Z 20011KT 24/02 A2995 RMK A01 T02380020  RH  024%=      5-min Rain = 0
KWA1 092152Z 20012KT 24/02 A2995 RMK A01 T02390022  RH  024%=      5-min Rain = 0
KWA1 092153Z 21010KT 24/02 A2995 RMK A01 T02400021  RH  024%=      5-min Rain = 0
KWA1 092154Z 20011KT 24/02 A2995 RMK A01 T02400022  RH  024%=      5-min Rain = 0
KWA1 092155Z 21017KT 24/02 A2995 RMK A01 T02410023  RH  024%=      5-min Rain = 0
KWA1 092156Z 21016KT 24/02 A2995 RMK A01 T02400021  RH  024%=      5-min Rain = 0
KWA1 092157Z 20015KT 24/02 A2995 RMK A01 T02390022  RH  024%=      5-min Rain = 0
KWA1 092158Z 21014KT 24/02 A2995 RMK A01 T02380022  RH  024%=      5-min Rain = 0
KWA1 092159Z 20014KT 24/02 A2994 RMK A01 T02370021  RH  024%=      5-min Rain = 0
KWA1 092200Z 20015KT 24/02 A2994 RMK A01 T02370021  RH  024%=      5-min Rain = 0
KWA1 092201Z 20013KT 24/02 A2994 RMK A01 T02360021  RH  024%=      5-min Rain = 0
KWA1 092202Z 18013KT 24/02 A2994 RMK A01 T02370023  RH  025%=      5-min Rain = 0
KWA1 092203Z 20013KT 24/02 A2994 RMK A01 T02370022  RH  024%=      5-min Rain = 0
KWA1 092204Z 20012KT 24/02 A2995 RMK A01 T02360021  RH  024%=      5-min Rain = 0
KWA1 092205Z 20013KT 24/02 A2995 RMK A01 T02350020  RH  025%=      5-min Rain = 0
KWA1 092206Z 19013KT 23/02 A2995 RMK A01 T02330020  RH  025%=      5-min Rain = 0
KWA1 092207Z 20014KT 23/02 A2995 RMK A01 T02310019  RH  025%=      5-min Rain = 0
KWA1 092208Z 20014KT 23/02 A2995 RMK A01 T02300020  RH  025%=      5-min Rain = 0
KWA1 092209Z 20015KT 23/02 A2995 RMK A01 T02300019  RH  025%=      5-min Rain = 0
KWA1 092210Z 20013KT 23/02 A2995 RMK A01 T02280019  RH  025%=      5-min Rain = 0
KWA1 092211Z 20013KT 23/02 A2995 RMK A01 T02280020  RH  025%=      5-min Rain = 0
KWA1 092212Z 20012KT 23/02 A2995 RMK A01 T02280020  RH  025%=      5-min Rain = 0
KWA1 092213Z 21011KT 23/02 A2995 RMK A01 T02270020  RH  026%=      5-min Rain = 0
KWA1 092214Z 20014KT 23/02 A2995 RMK A01 T02270020  RH  026%=      5-min Rain = 0
KWA1 092215Z 21013KT 23/02 A2995 RMK A01 T02270020  RH  026%=      5-min Rain = 0
KWA1 092216Z 20013KT 23/02 A2995 RMK A01 T02270020  RH  026%=      5-min Rain = 0
KWA1 092217Z 20014KT 23/02 A2995 RMK A01 T02270020  RH  026%=      5-min Rain = 0
KWA1 092218Z 20014KT 23/02 A2995 RMK A01 T02270020  RH  026%=      5-min Rain = 0
KWA1 092219Z 20014KT 23/02 A2995 RMK A01 T02260020  RH  026%=      5-min Rain = 0
KWA1 092220Z 21014KT 23/02 A2995 RMK A01 T02260019  RH  026%=      5-min Rain = 0
KWA1 092221Z 21014KT 23/02 A2995 RMK A01 T02250019  RH  026%=      5-min Rain = 0
KWA1 092222Z 20012KT 23/02 A2995 RMK A01 T02260019  RH  026%=      5-min Rain = 0
KWA1 092223Z 20013KT 23/02 A2995 RMK A01 T02250019  RH  026%=      5-min Rain = 0
KWA1 092224Z 20014KT 23/02 A2995 RMK A01 T02260019  RH  026%=      5-min Rain = 0
KWA1 092225Z 21014KT 23/02 A2995 RMK A01 T02250018  RH  026%=      5-min Rain = 0
KWA1 092226Z 21012KT 22/02 A2995 RMK A01 T02240019  RH  026%=      5-min Rain = 0
KWA1 092227Z 21012KT 22/02 A2995 RMK A01 T02230019  RH  026%=      5-min Rain = 0
KWA1 092228Z 20014KT 22/02 A2995 RMK A01 T02220019  RH  026%=      5-min Rain = 0
KWA1 092229Z 21012KT 22/02 A2995 RMK A01 T02220019  RH  026%=      5-min Rain = 0
KWA1 092230Z 20013KT 22/02 A2995 RMK A01 T02220020  RH  026%=      5-min Rain = 0
KWA1 092231Z 20013KT 22/02 A2995 RMK A01 T02220019  RH  026%=      5-min Rain = 0
KWA1 092232Z 20016KT 22/02 A2995 RMK A01 T02220019  RH  026%=      5-min Rain = 0
KWA1 092233Z 21015KT 22/02 A2995 RMK A01 T02220019  RH  026%=      5-min Rain = 0
KWA1 092234Z 21013KT 22/02 A2995 RMK A01 T02220019  RH  026%=      5-min Rain = 0
KWA1 092235Z 21013KT 22/02 A2995 RMK A01 T02210020  RH  026%=      5-min Rain = 0
KWA1 092236Z 21014KT 22/02 A2995 RMK A01 T02210019  RH  026%=      5-min Rain = 0
KWA1 092237Z 21015KT 22/02 A2995 RMK A01 T02200019  RH  026%=      5-min Rain = 0
KWA1 092238Z 21014KT 22/02 A2995 RMK A01 T02210019  RH  026%=      5-min Rain = 0
KWA1 092239Z 21012KT 22/02 A2995 RMK A01 T02210019  RH  026%=      5-min Rain = 0
KWA1 092240Z 21012KT 22/02 A2995 RMK A01 T02220019  RH  026%=      5-min Rain = 0
KWA1 092241Z 21012KT 22/02 A2995 RMK A01 T02220020  RH  026%=      5-min Rain = 0
KWA1 092242Z 20014KT 22/02 A2995 RMK A01 T02230020  RH  026%=      5-min Rain = 0
KWA1 092243Z 20012KT 22/02 A2995 RMK A01 T02230020  RH  026%=      5-min Rain = 0
KWA1 092244Z 21013KT 22/02 A2995 RMK A01 T02230021  RH  026%=      5-min Rain = 0
KWA1 092245Z 21012KT 22/02 A2995 RMK A01 T02230021  RH  026%=      5-min Rain = 0
KWA1 092246Z 20012KT 22/02 A2995 RMK A01 T02230022  RH  027%=      5-min Rain = 0
KWA1 092247Z 21010KT 22/02 A2995 RMK A01 T02230022  RH  027%=      5-min Rain = 0
KWA1 092248Z 21010KT 22/02 A2995 RMK A01 T02230023  RH  027%=      5-min Rain = 0
KWA1 092249Z 20008KT 22/02 A2995 RMK A01 T02230024  RH  027%=      5-min Rain = 0
KWA1 092250Z 20010KT 22/02 A2995 RMK A01 T02230024  RH  027%=      5-min Rain = 0
KWA1 092251Z 20010KT 22/02 A2995 RMK A01 T02230023  RH  027%=      5-min Rain = 0
KWA1 092252Z 20010KT 22/02 A2995 RMK A01 T02230023  RH  027%=      5-min Rain = 0
KWA1 092253Z 20011KT 22/02 A2995 RMK A01 T02230023  RH  027%=      5-min Rain = 0
KWA1 092254Z 20009KT 22/02 A2995 RMK A01 T02230023  RH  027%=      5-min Rain = 0
KWA1 092255Z 20010KT 22/02 A2995 RMK A01 T02230024  RH  027%=      5-min Rain = 0
KWA1 092256Z 20012KT 22/02 A2995 RMK A01 T02230023  RH  027%=      5-min Rain = 0
KWA1 092257Z 20012KT 22/02 A2995 RMK A01 T02230022  RH  027%=      5-min Rain = 0
KWA1 092258Z 20011KT 22/02 A2995 RMK A01 T02220022  RH  027%=      5-min Rain = 0
KWA1 092259Z 20013KT 22/02 A2995 RMK A01 T02220022  RH  027%=      5-min Rain = 0
KWA1 092300Z 20011KT 22/02 A2995 RMK A01 T02210022  RH  027%=      5-min Rain = 0
KWA1 092301Z 20010KT 22/02 A2995 RMK A01 T02210022  RH  027%=      5-min Rain = 0
KWA1 092302Z 21010KT 22/02 A2995 RMK A01 T02210022  RH  027%=      5-min Rain = 0
KWA1 092303Z 20009KT 22/02 A2995 RMK A01 T02200023  RH  027%=      5-min Rain = 0
KWA1 092304Z 20007KT 22/02 A2995 RMK A01 T02200024  RH  027%=      5-min Rain = 0
KWA1 092305Z 20008KT 22/02 A2995 RMK A01 T02200024  RH  028%=      5-min Rain = 0
KWA1 092306Z 20008KT 22/03 A2995 RMK A01 T02200025  RH  028%=      5-min Rain = 0
KWA1 092307Z 20010KT 22/02 A2995 RMK A01 T02200024  RH  028%=      5-min Rain = 0
KWA1 092308Z 20013KT 22/02 A2995 RMK A01 T02200023  RH  027%=      5-min Rain = 0
KWA1 092309Z 20011KT 22/02 A2995 RMK A01 T02190022  RH  027%=      5-min Rain = 0
KWA1 092310Z 20009KT 22/02 A2995 RMK A01 T02190023  RH  027%=      5-min Rain = 0
KWA1 092311Z 20007KT 22/02 A2995 RMK A01 T02180024  RH  028%=      5-min Rain = 0
KWA1 092312Z 20009KT 22/03 A2995 RMK A01 T02170025  RH  028%=      5-min Rain = 0
KWA1 092313Z 20010KT 22/02 A2995 RMK A01 T02160024  RH  028%=      5-min Rain = 0
KWA1 092314Z 20010KT 22/02 A2995 RMK A01 T02160023  RH  028%=      5-min Rain = 0
KWA1 092315Z 20009KT 22/02 A2995 RMK A01 T02160023  RH  028%=      5-min Rain = 0
KWA1 092316Z 20009KT 22/02 A2995 RMK A01 T02150023  RH  028%=      5-min Rain = 0
KWA1 092317Z 20010KT 22/02 A2995 RMK A01 T02150022  RH  028%=      5-min Rain = 0
KWA1 092318Z 20010KT 22/02 A2995 RMK A01 T02150022  RH  028%=      5-min Rain = 0
KWA1 092319Z 20010KT 21/02 A2995 RMK A01 T02140022  RH  028%=      5-min Rain = 0
KWA1 092320Z 20010KT 21/02 A2995 RMK A01 T02140022  RH  028%=      5-min Rain = 0
KWA1 092321Z 20010KT 21/02 A2995 RMK A01 T02140022  RH  028%=      5-min Rain = 0
KWA1 092322Z 20009KT 21/02 A2995 RMK A01 T02140022  RH  028%=      5-min Rain = 0
KWA1 092323Z 20009KT 21/02 A2995 RMK A01 T02140022  RH  028%=      5-min Rain = 0
KWA1 092324Z 20007KT 21/02 A2995 RMK A01 T02130023  RH  028%=      5-min Rain = 0
KWA1 092325Z 19008KT 21/02 A2995 RMK A01 T02120022  RH  028%=      5-min Rain = 0
KWA1 092326Z 19007KT 21/02 A2995 RMK A01 T02120023  RH  029%=      5-min Rain = 0
KWA1 092327Z 20007KT 21/02 A2995 RMK A01 T02110023  RH  029%=      5-min Rain = 0
KWA1 092328Z 19006KT 21/02 A2995 RMK A01 T02100023  RH  029%=      5-min Rain = 0
KWA1 092329Z 19006KT 21/02 A2995 RMK A01 T02090023  RH  029%=      5-min Rain = 0
KWA1 092330Z 20006KT 21/02 A2995 RMK A01 T02090023  RH  029%=      5-min Rain = 0
KWA1 092331Z 20006KT 21/02 A2995 RMK A01 T02080023  RH  029%=      5-min Rain = 0
KWA1 092332Z 20005KT 21/02 A2995 RMK A01 T02070023  RH  030%=      5-min Rain = 0
KWA1 092333Z 20005KT 21/02 A2995 RMK A01 T02050023  RH  030%=      5-min Rain = 0
KWA1 092334Z 20006KT 20/02 A2995 RMK A01 T02040023  RH  030%=      5-min Rain = 0
KWA1 092335Z 20005KT 20/02 A2994 RMK A01 T02040023  RH  030%=      5-min Rain = 0
KWA1 092336Z 20006KT 20/02 A2995 RMK A01 T02040023  RH  030%=      5-min Rain = 0
KWA1 092337Z 20006KT 20/02 A2995 RMK A01 T02030023  RH  030%=      5-min Rain = 0
KWA1 092338Z 20006KT 20/02 A2995 RMK A01 T02020023  RH  030%=      5-min Rain = 0
KWA1 092339Z 20006KT 20/02 A2995 RMK A01 T02010023  RH  031%=      5-min Rain = 0
KWA1 092340Z 20006KT 20/02 A2995 RMK A01 T01990023  RH  031%=      5-min Rain = 0
KWA1 092341Z 20006KT 20/02 A2995 RMK A01 T01980023  RH  031%=      5-min Rain = 0
KWA1 092342Z 19006KT 20/02 A2995 RMK A01 T01970023  RH  031%=      5-min Rain = 0
KWA1 092343Z 18005KT 20/02 A2994 RMK A01 T01960023  RH  032%=      5-min Rain = 0
KWA1 092344Z 19006KT 19/02 A2994 RMK A01 T01940022  RH  032%=      5-min Rain = 0
KWA1 092345Z 18005KT 19/02 A2994 RMK A01 T01920022  RH  032%=      5-min Rain = 0
KWA1 092346Z 18006KT 19/02 A2994 RMK A01 T01900022  RH  033%=      5-min Rain = 0
KWA1 092347Z 19006KT 19/02 A2994 RMK A01 T01890022  RH  033%=      5-min Rain = 0
KWA1 092348Z 19006KT 19/02 A2994 RMK A01 T01880022  RH  033%=      5-min Rain = 0
KWA1 092349Z 19007KT 19/02 A2994 RMK A01 T01870022  RH  033%=      5-min Rain = 0
KWA1 092350Z 19007KT 19/02 A2995 RMK A01 T01870022  RH  033%=      5-min Rain = 0
KWA1 092351Z 19007KT 19/02 A2994 RMK A01 T01890023  RH  033%=      5-min Rain = 0
KWA1 092352Z 19007KT 19/02 A2995 RMK A01 T01890022  RH  033%=      5-min Rain = 0
KWA1 092353Z 19007KT 19/02 A2995 RMK A01 T01870022  RH  033%=      5-min Rain = 0
KWA1 092354Z 19007KT 19/02 A2995 RMK A01 T01860022  RH  033%=      5-min Rain = 0
KWA1 092355Z 19006KT 19/02 A2995 RMK A01 T01860022  RH  034%=      5-min Rain = 0
KWA1 092356Z 19006KT 19/02 A2995 RMK A01 T01850022  RH  034%=      5-min Rain = 0
KWA1 092357Z 19006KT 18/02 A2995 RMK A01 T01840022  RH  034%=      5-min Rain = 0
KWA1 092358Z 19005KT 18/02 A2995 RMK A01 T01820021  RH  034%=      5-min Rain = 0
KWA1 092359Z 20006KT 18/02 A2995 RMK A01 T01810021  RH  034%=      5-min Rain = 0
KWA1 100000Z 20006KT 18/02 A2995 RMK A01 T01790021  RH  035%=      5-min Rain = 0
KWA1 100001Z 20006KT 18/02 A2995 RMK A01 T01770020  RH  035%=      5-min Rain = 0
KWA1 100002Z 20006KT 18/02 A2995 RMK A01 T01760020  RH  035%=      5-min Rain = 0
KWA1 100003Z 20006KT 17/02 A2995 RMK A01 T01740020  RH  035%=      5-min Rain = 0
KWA1 100004Z 20006KT 17/02 A2995 RMK A01 T01730020  RH  036%=      5-min Rain = 0
KWA1 100005Z 20006KT 17/02 A2995 RMK A01 T01720019  RH  036%=      5-min Rain = 0
KWA1 100006Z 20006KT 17/02 A2995 RMK A01 T01710019  RH  036%=      5-min Rain = 0
KWA1 100007Z 20006KT 17/02 A2995 RMK A01 T01690019  RH  036%=      5-min Rain = 0
KWA1 100008Z 20006KT 17/02 A2995 RMK A01 T01670019  RH  037%=      5-min Rain = 0
KWA1 100009Z 20006KT 17/02 A2995 RMK A01 T01660019  RH  037%=      5-min Rain = 0
KWA1 100010Z 20006KT 17/02 A2995 RMK A01 T01650018  RH  037%=      5-min Rain = 0
KWA1 100011Z 20006KT 17/02 A2995 RMK A01 T01650018  RH  037%=      5-min Rain = 0
KWA1 100012Z 20006KT 16/02 A2995 RMK A01 T01640018  RH  037%=      5-min Rain = 0
KWA1 100013Z 20006KT 16/02 A2995 RMK A01 T01620018  RH  038%=      5-min Rain = 0
KWA1 100014Z 20006KT 16/02 A2995 RMK A01 T01610018  RH  038%=      5-min Rain = 0
KWA1 100015Z 20006KT 16/02 A2995 RMK A01 T01600018  RH  038%=      5-min Rain = 0
KWA1 100016Z 20005KT 16/02 A2995 RMK A01 T01590017  RH  038%=      5-min Rain = 0
KWA1 100017Z 19005KT 16/02 A2995 RMK A01 T01580017  RH  039%=      5-min Rain = 0
KWA1 100018Z 20006KT 16/02 A2996 RMK A01 T01570017  RH  039%=      5-min Rain = 0
KWA1 100019Z 19005KT 16/02 A2996 RMK A01 T01560017  RH  039%=      5-min Rain = 0
KWA1 100020Z 19005KT 16/02 A2996 RMK A01 T01550017  RH  039%=      5-min Rain = 0
KWA1 100021Z 20006KT 15/02 A2996 RMK A01 T01540016  RH  039%=      5-min Rain = 0
KWA1 100022Z 20006KT 15/02 A2996 RMK A01 T01530016  RH  040%=      5-min Rain = 0
KWA1 100023Z 20006KT 15/02 A2996 RMK A01 T01530016  RH  040%=      5-min Rain = 0
KWA1 100024Z 20006KT 15/02 A2996 RMK A01 T01530017  RH  040%=      5-min Rain = 0
KWA1 100025Z 20005KT 15/02 A2996 RMK A01 T01540017  RH  040%=      5-min Rain = 0
KWA1 100026Z 20005KT 15/02 A2996 RMK A01 T01540017  RH  039%=      5-min Rain = 0
KWA1 100027Z 20005KT 15/02 A2996 RMK A01 T01540017  RH  039%=      5-min Rain = 0
KWA1 100028Z 20004KT 15/02 A2996 RMK A01 T01530017  RH  040%=      5-min Rain = 0
KWA1 100029Z 19004KT 15/02 A2996 RMK A01 T01520016  RH  040%=      5-min Rain = 0
KWA1 100030Z 19005KT 15/02 A2996 RMK A01 T01510016  RH  040%=      5-min Rain = 0
KWA1 100031Z 20005KT 15/02 A2996 RMK A01 T01500016  RH  040%=      5-min Rain = 0
KWA1 100032Z 20005KT 15/02 A2996 RMK A01 T01490016  RH  040%=      5-min Rain = 0
KWA1 100033Z 20005KT 15/02 A2996 RMK A01 T01510018  RH  041%=      5-min Rain = 0
KWA1 100034Z 20005KT 15/02 A2996 RMK A01 T01530017  RH  040%=      5-min Rain = 0
KWA1 100035Z 20005KT 15/02 A2996 RMK A01 T01500015  RH  040%=      5-min Rain = 0
KWA1 100036Z 19005KT 15/02 A2996 RMK A01 T01490017  RH  041%=      5-min Rain = 0
KWA1 100037Z 19006KT 15/02 A2996 RMK A01 T01500017  RH  040%=      5-min Rain = 0
KWA1 100038Z 19006KT 15/02 A2996 RMK A01 T01510017  RH  040%=      5-min Rain = 0
KWA1 100039Z 19006KT 15/02 A2996 RMK A01 T01510017  RH  040%=      5-min Rain = 0
KWA1 100040Z 19006KT 15/02 A2996 RMK A01 T01510017  RH  040%=      5-min Rain = 0
KWA1 100041Z 20006KT 15/02 A2996 RMK A01 T01480016  RH  041%=      5-min Rain = 0
KWA1 100042Z 20006KT 15/02 A2996 RMK A01 T01460015  RH  041%=      5-min Rain = 0
KWA1 100043Z 20006KT 15/02 A2996 RMK A01 T01450015  RH  041%=      5-min Rain = 0
KWA1 100044Z 20007KT 15/02 A2996 RMK A01 T01470017  RH  041%=      5-min Rain = 0
KWA1 100045Z 20006KT 15/02 A2996 RMK A01 T01480017  RH  041%=      5-min Rain = 0
KWA1 100046Z 20006KT 15/02 A2996 RMK A01 T01470016  RH  041%=      5-min Rain = 0
KWA1 100047Z 20006KT 15/02 A2996 RMK A01 T01450015  RH  041%=      5-min Rain = 0
KWA1 100048Z 20006KT 14/02 A2996 RMK A01 T01430015  RH  042%=      5-min Rain = 0
KWA1 100049Z 20006KT 14/02 A2996 RMK A01 T01420016  RH  042%=      5-min Rain = 0
KWA1 100050Z 20006KT 14/02 A2996 RMK A01 T01420016  RH  042%=      5-min Rain = 0
KWA1 100051Z 19006KT 14/02 A2996 RMK A01 T01430016  RH  042%=      5-min Rain = 0
KWA1 100052Z 19006KT 14/02 A2996 RMK A01 T01440016  RH  042%=      5-min Rain = 0
KWA1 100053Z 19006KT 14/02 A2996 RMK A01 T01440016  RH  042%=      5-min Rain = 0
KWA1 100054Z 18006KT 14/02 A2996 RMK A01 T01420015  RH  042%=      5-min Rain = 0
KWA1 100055Z 18006KT 14/01 A2996 RMK A01 T01400013  RH  042%=      5-min Rain = 0
KWA1 100056Z 18006KT 14/01 A2996 RMK A01 T01370012  RH  042%=      5-min Rain = 0
KWA1 100057Z 18006KT 14/01 A2996 RMK A01 T01350011  RH  043%=      5-min Rain = 0
KWA1 100058Z 18006KT 13/01 A2996 RMK A01 T01330011  RH  043%=      5-min Rain = 0
KWA1 100059Z 18006KT 13/01 A2996 RMK A01 T01310010  RH  044%=      5-min Rain = 0
KWA1 100100Z 18007KT 13/01 A2996 RMK A01 T01310011  RH  044%=      5-min Rain = 0
KWA1 100101Z 18006KT 13/01 A2996 RMK A01 T01310013  RH  044%=      5-min Rain = 0
KWA1 100102Z 18007KT 13/01 A2996 RMK A01 T01330014  RH  044%=      5-min Rain = 0
KWA1 100103Z 18007KT 13/01 A2996 RMK A01 T01330014  RH  044%=      5-min Rain = 0
KWA1 100104Z 18007KT 13/02 A2996 RMK A01 T01340015  RH  044%=      5-min Rain = 0
KWA1 100105Z 18007KT 13/02 A2996 RMK A01 T01340016  RH  044%=      5-min Rain = 0
KWA1 100106Z 18007KT 14/02 A2996 RMK A01 T01350016  RH  045%=      5-min Rain = 0
KWA1 100107Z 19008KT 14/02 A2996 RMK A01 T01370017  RH  044%=      5-min Rain = 0
KWA1 100108Z 19008KT 14/02 A2996 RMK A01 T01380018  RH  044%=      5-min Rain = 0
KWA1 100109Z 18008KT 14/02 A2996 RMK A01 T01410019  RH  044%=      5-min Rain = 0
KWA1 100110Z 19008KT 14/02 A2996 RMK A01 T01440019  RH  043%=      5-min Rain = 0
KWA1 100111Z 19008KT 15/02 A2996 RMK A01 T01460019  RH  042%=      5-min Rain = 0
KWA1 100112Z 19007KT 15/02 A2996 RMK A01 T01470019  RH  042%=      5-min Rain = 0
KWA1 100113Z 18007KT 15/02 A2996 RMK A01 T01480019  RH  042%=      5-min Rain = 0
KWA1 100114Z 18007KT 15/02 A2996 RMK A01 T01480019  RH  042%=      5-min Rain = 0
KWA1 100115Z 19008KT 15/02 A2996 RMK A01 T01490019  RH  041%=      5-min Rain = 0
KWA1 100116Z 18007KT 15/02 A2996 RMK A01 T01500020  RH  041%=      5-min Rain = 0
KWA1 100117Z 18008KT 15/02 A2996 RMK A01 T01500020  RH  041%=      5-min Rain = 0
KWA1 100118Z 18008KT 15/02 A2996 RMK A01 T01500020  RH  041%=      5-min Rain = 0
KWA1 100119Z 18009KT 15/02 A2996 RMK A01 T01490019  RH  041%=      5-min Rain = 0
KWA1 100120Z 18009KT 15/02 A2996 RMK A01 T01470017  RH  041%=      5-min Rain = 0
KWA1 100121Z 18009KT 15/02 A2996 RMK A01 T01450017  RH  042%=      5-min Rain = 0
KWA1 100122Z 18010KT 14/02 A2996 RMK A01 T01430017  RH  042%=      5-min Rain = 0
KWA1 100123Z 18010KT 14/02 A2996 RMK A01 T01430018  RH  042%=      5-min Rain = 0
KWA1 100124Z 18010KT 14/02 A2995 RMK A01 T01440018  RH  043%=      5-min Rain = 0
KWA1 100125Z 18009KT 15/02 A2995 RMK A01 T01450020  RH  043%=      5-min Rain = 0
KWA1 100126Z 18010KT 15/02 A2995 RMK A01 T01480022  RH  042%=      5-min Rain = 0
KWA1 100127Z 18010KT 15/02 A2995 RMK A01 T01500023  RH  042%=      5-min Rain = 0
KWA1 100128Z 18011KT 15/02 A2995 RMK A01 T01540024  RH  041%=      5-min Rain = 0
KWA1 100129Z 19010KT 16/02 A2995 RMK A01 T01560024  RH  041%=      5-min Rain = 0
KWA1 100130Z 19012KT 16/02 A2995 RMK A01 T01580023  RH  040%=      5-min Rain = 0
KWA1 100131Z 19011KT 16/02 A2995 RMK A01 T01600024  RH  040%=      5-min Rain = 0
KWA1 100132Z 19010KT 16/02 A2995 RMK A01 T01610024  RH  039%=      5-min Rain = 0
KWA1 100133Z 19011KT 16/02 A2995 RMK A01 T01610023  RH  039%=      5-min Rain = 0
KWA1 100134Z 19010KT 16/02 A2995 RMK A01 T01610023  RH  039%=      5-min Rain = 0
KWA1 100135Z 19010KT 16/02 A2995 RMK A01 T01610023  RH  039%=      5-min Rain = 0
KWA1 100136Z 19009KT 16/02 A2995 RMK A01 T01580022  RH  040%=      5-min Rain = 0
KWA1 100137Z 19010KT 16/02 A2995 RMK A01 T01560022  RH  040%=      5-min Rain = 0
KWA1 100138Z 19009KT 16/02 A2995 RMK A01 T01550022  RH  041%=      5-min Rain = 0
KWA1 100139Z 19009KT 15/02 A2995 RMK A01 T01530021  RH  041%=      5-min Rain = 0
KWA1 100140Z 18009KT 15/02 A2995 RMK A01 T01520022  RH  041%=      5-min Rain = 0
KWA1 100141Z 18009KT 15/02 A2995 RMK A01 T01510021  RH  042%=      5-min Rain = 0
KWA1 100142Z 18009KT 15/02 A2995 RMK A01 T01490021  RH  042%=      5-min Rain = 0
KWA1 100143Z 18008KT 15/02 A2995 RMK A01 T01460020  RH  043%=      5-min Rain = 0
KWA1 100144Z 17008KT 14/02 A2995 RMK A01 T01430020  RH  043%=      5-min Rain = 0
KWA1 100145Z 17008KT 14/02 A2995 RMK A01 T01420020  RH  044%=      5-min Rain = 0
KWA1 100146Z 17008KT 14/02 A2995 RMK A01 T01400020  RH  044%=      5-min Rain = 0
KWA1 100147Z 17008KT 14/02 A2995 RMK A01 T01390019  RH  044%=      5-min Rain = 0
KWA1 100148Z 18008KT 14/02 A2995 RMK A01 T01370019  RH  045%=      5-min Rain = 0
KWA1 100149Z 18008KT 14/02 A2995 RMK A01 T01360019  RH  045%=      5-min Rain = 0
KWA1 100150Z 17008KT 14/02 A2995 RMK A01 T01350019  RH  045%=      5-min Rain = 0
KWA1 100151Z 18008KT 13/02 A2995 RMK A01 T01340019  RH  046%=      5-min Rain = 0
KWA1 100152Z 18008KT 13/02 A2995 RMK A01 T01330019  RH  046%=      5-min Rain = 0
KWA1 100153Z 18007KT 13/02 A2995 RMK A01 T01320019  RH  046%=      5-min Rain = 0
KWA1 100154Z 18008KT 13/02 A2995 RMK A01 T01310019  RH  046%=      5-min Rain = 0
KWA1 100155Z 18008KT 13/02 A2995 RMK A01 T01300019  RH  047%=      5-min Rain = 0
KWA1 100156Z 18008KT 13/02 A2995 RMK A01 T01290019  RH  047%=      5-min Rain = 0
KWA1 100157Z 18008KT 13/02 A2995 RMK A01 T01290019  RH  047%=      5-min Rain = 0
KWA1 100158Z 18007KT 13/02 A2995 RMK A01 T01280019  RH  048%=      5-min Rain = 0
KWA1 100159Z 18008KT 13/02 A2995 RMK A01 T01270020  RH  048%=      5-min Rain = 0
KWA1 100200Z 18008KT 13/02 A2995 RMK A01 T01270020  RH  048%=      5-min Rain = 0
KWA1 100201Z 18008KT 13/02 A2995 RMK A01 T01270020  RH  048%=      5-min Rain = 0
KWA1 100202Z 18008KT 13/02 A2995 RMK A01 T01270020  RH  048%=      5-min Rain = 0
KWA1 100203Z 18008KT 13/02 A2996 RMK A01 T01270021  RH  048%=      5-min Rain = 0
KWA1 100204Z 19007KT 13/02 A2996 RMK A01 T01260021  RH  049%=      5-min Rain = 0
KWA1 100205Z 18007KT 13/02 A2996 RMK A01 T01260021  RH  049%=      5-min Rain = 0
KWA1 100206Z 19007KT 13/02 A2995 RMK A01 T01260021  RH  049%=      5-min Rain = 0
KWA1 100207Z 19007KT 13/02 A2995 RMK A01 T01250021  RH  049%=      5-min Rain = 0
KWA1 100208Z 19007KT 13/02 A2995 RMK A01 T01250021  RH  049%=      5-min Rain = 0
KWA1 100209Z 19007KT 13/02 A2995 RMK A01 T01250021  RH  049%=      5-min Rain = 0
KWA1 100210Z 19007KT 12/02 A2995 RMK A01 T01240021  RH  049%=      5-min Rain = 0
KWA1 100211Z 19007KT 12/02 A2995 RMK A01 T01230021  RH  050%=      5-min Rain = 0
KWA1 100212Z 20007KT 12/02 A2996 RMK A01 T01220021  RH  050%=      5-min Rain = 0
KWA1 100213Z 20008KT 12/02 A2996 RMK A01 T01220022  RH  050%=      5-min Rain = 0
KWA1 100214Z 20009KT 12/02 A2996 RMK A01 T01230022  RH  050%=      5-min Rain = 0
KWA1 100215Z 20009KT 13/02 A2996 RMK A01 T01260022  RH  049%=      5-min Rain = 0
KWA1 100216Z 20009KT 13/02 A2996 RMK A01 T01270022  RH  049%=      5-min Rain = 0
KWA1 100217Z 20010KT 13/02 A2996 RMK A01 T01280022  RH  048%=      5-min Rain = 0
KWA1 100218Z 20009KT 13/02 A2996 RMK A01 T01300023  RH  048%=      5-min Rain = 0
KWA1 100219Z 20010KT 13/02 A2996 RMK A01 T01320023  RH  047%=      5-min Rain = 0
KWA1 100220Z 20010KT 13/02 A2996 RMK A01 T01330023  RH  047%=      5-min Rain = 0
KWA1 100221Z 20010KT 13/02 A2996 RMK A01 T01340023  RH  047%=      5-min Rain = 0
KWA1 100222Z 20011KT 14/02 A2996 RMK A01 T01350023  RH  047%=      5-min Rain = 0
KWA1 100223Z 20011KT 14/03 A2996 RMK A01 T01390025  RH  046%=      5-min Rain = 0
KWA1 100224Z 20010KT 14/03 A2996 RMK A01 T01420025  RH  045%=      5-min Rain = 0
KWA1 100225Z 20010KT 14/02 A2996 RMK A01 T01420024  RH  045%=      5-min Rain = 0
KWA1 100226Z 20010KT 14/02 A2996 RMK A01 T01420024  RH  045%=      5-min Rain = 0
KWA1 100227Z 20010KT 14/02 A2996 RMK A01 T01400023  RH  045%=      5-min Rain = 0
KWA1 100228Z 20010KT 14/02 A2996 RMK A01 T01390023  RH  046%=      5-min Rain = 0
KWA1 100229Z 20011KT 14/02 A2996 RMK A01 T01400024  RH  046%=      5-min Rain = 0
KWA1 100230Z 20011KT 14/03 A2996 RMK A01 T01420025  RH  045%=      5-min Rain = 0
KWA1 100231Z 20010KT 14/03 A2995 RMK A01 T01440025  RH  045%=      5-min Rain = 0
KWA1 100232Z 20011KT 15/03 A2996 RMK A01 T01450025  RH  044%=      5-min Rain = 0
KWA1 100233Z 20011KT 15/03 A2996 RMK A01 T01460025  RH  044%=      5-min Rain = 0
KWA1 100234Z 20011KT 15/03 A2996 RMK A01 T01460025  RH  044%=      5-min Rain = 0
KWA1 100235Z 20011KT 15/03 A2996 RMK A01 T01460025  RH  044%=      5-min Rain = 0
KWA1 100236Z 21011KT 15/03 A2996 RMK A01 T01460025  RH  044%=      5-min Rain = 0
KWA1 100237Z 20010KT 15/03 A2996 RMK A01 T01460025  RH  044%=      5-min Rain = 0
KWA1 100238Z 20011KT 15/03 A2996 RMK A01 T01460026  RH  044%=      5-min Rain = 0
KWA1 100239Z 20011KT 15/03 A2996 RMK A01 T01470026  RH  044%=      5-min Rain = 0
KWA1 100240Z 20011KT 15/03 A2996 RMK A01 T01470026  RH  044%=      5-min Rain = 0
KWA1 100241Z 20011KT 15/03 A2996 RMK A01 T01480026  RH  044%=      5-min Rain = 0
KWA1 100242Z 20010KT 15/03 A2996 RMK A01 T01480025  RH  044%=      5-min Rain = 0
KWA1 100243Z 20012KT 15/03 A2996 RMK A01 T01480026  RH  044%=      5-min Rain = 0
KWA1 100244Z 20011KT 15/03 A2995 RMK A01 T01490026  RH  044%=      5-min Rain = 0
KWA1 100245Z 20011KT 15/03 A2995 RMK A01 T01490026  RH  044%=      5-min Rain = 0
KWA1 100246Z 20011KT 15/03 A2995 RMK A01 T01480026  RH  044%=      5-min Rain = 0
KWA1 100247Z 19011KT 15/03 A2995 RMK A01 T01480026  RH  044%=      5-min Rain = 0
KWA1 100248Z 20011KT 15/03 A2995 RMK A01 T01480025  RH  044%=      5-min Rain = 0
KWA1 100249Z 19011KT 15/03 A2995 RMK A01 T01480026  RH  044%=      5-min Rain = 0
KWA1 100250Z 19011KT 15/03 A2995 RMK A01 T01490026  RH  044%=      5-min Rain = 0
KWA1 100251Z 20010KT 15/03 A2995 RMK A01 T01490026  RH  044%=      5-min Rain = 0
KWA1 100252Z 20011KT 15/03 A2995 RMK A01 T01490026  RH  044%=      5-min Rain = 0
KWA1 100253Z 20011KT 15/03 A2995 RMK A01 T01480026  RH  044%=      5-min Rain = 0
KWA1 100254Z 20011KT 15/03 A2995 RMK A01 T01480026  RH  044%=      5-min Rain = 0
KWA1 100255Z 20011KT 15/03 A2995 RMK A01 T01480026  RH  044%=      5-min Rain = 0
KWA1 100256Z 20011KT 15/03 A2995 RMK A01 T01470025  RH  044%=      5-min Rain = 0
KWA1 100257Z 20011KT 15/03 A2995 RMK A01 T01460025  RH  044%=      5-min Rain = 0
KWA1 100258Z 20011KT 15/03 A2995 RMK A01 T01450025  RH  044%=      5-min Rain = 0
KWA1 100259Z 20010KT 15/03 A2995 RMK A01 T01450025  RH  044%=      5-min Rain = 0
KWA1 100300Z 20011KT 15/03 A2995 RMK A01 T01450025  RH  044%=      5-min Rain = 0
KWA1 100301Z 20010KT 15/03 A2995 RMK A01 T01450025  RH  045%=      5-min Rain = 0
KWA1 100302Z 20010KT 14/03 A2995 RMK A01 T01440025  RH  045%=      5-min Rain = 0
KWA1 100303Z 20011KT 14/03 A2995 RMK A01 T01430025  RH  045%=      5-min Rain = 0
KWA1 100304Z 20010KT 14/03 A2995 RMK A01 T01430025  RH  045%=      5-min Rain = 0
KWA1 100305Z 20011KT 14/03 A2995 RMK A01 T01430025  RH  045%=      5-min Rain = 0
KWA1 100306Z 20010KT 14/03 A2995 RMK A01 T01430025  RH  045%=      5-min Rain = 0
KWA1 100307Z 20010KT 14/03 A2995 RMK A01 T01410025  RH  045%=      5-min Rain = 0
KWA1 100308Z 20010KT 14/03 A2995 RMK A01 T01410025  RH  045%=      5-min Rain = 0
KWA1 100309Z 20010KT 14/03 A2995 RMK A01 T01420026  RH  045%=      5-min Rain = 0
KWA1 100310Z 20011KT 14/03 A2995 RMK A01 T01410025  RH  045%=      5-min Rain = 0
KWA1 100311Z 20011KT 14/03 A2995 RMK A01 T01420025  RH  045%=      5-min Rain = 0
KWA1 100312Z 20011KT 14/03 A2995 RMK A01 T01420025  RH  045%=      5-min Rain = 0
KWA1 100313Z 20011KT 14/03 A2995 RMK A01 T01420026  RH  045%=      5-min Rain = 0
KWA1 100314Z 20011KT 14/03 A2995 RMK A01 T01410025  RH  045%=      5-min Rain = 0
KWA1 100315Z 20010KT 14/03 A2995 RMK A01 T01420025  RH  045%=      5-min Rain = 0
KWA1 100316Z 20011KT 14/03 A2995 RMK A01 T01420026  RH  045%=      5-min Rain = 0
KWA1 100317Z 20011KT 14/03 A2995 RMK A01 T01410025  RH  046%=      5-min Rain = 0
KWA1 100318Z 21010KT 14/03 A2995 RMK A01 T01410026  RH  046%=      5-min Rain = 0
KWA1 100319Z 20010KT 14/03 A2995 RMK A01 T01410026  RH  046%=      5-min Rain = 0
KWA1 100320Z 21010KT 14/03 A2995 RMK A01 T01410026  RH  046%=      5-min Rain = 0
KWA1 100321Z 20011KT 14/03 A2995 RMK A01 T01400025  RH  046%=      5-min Rain = 0
KWA1 100322Z 20011KT 14/03 A2995 RMK A01 T01400026  RH  046%=      5-min Rain = 0
KWA1 100323Z 21010KT 14/03 A2995 RMK A01 T01400026  RH  046%=      5-min Rain = 0
KWA1 100324Z 21009KT 14/03 A2995 RMK A01 T01390026  RH  046%=      5-min Rain = 0
KWA1 100325Z 21010KT 14/03 A2995 RMK A01 T01380025  RH  047%=      5-min Rain = 0
KWA1 100326Z 20010KT 14/03 A2995 RMK A01 T01370026  RH  047%=      5-min Rain = 0
KWA1 100327Z 20010KT 14/03 A2995 RMK A01 T01380026  RH  047%=      5-min Rain = 0
KWA1 100328Z 21010KT 14/03 A2995 RMK A01 T01380026  RH  047%=      5-min Rain = 0
KWA1 100329Z 20009KT 14/03 A2995 RMK A01 T01370026  RH  047%=      5-min Rain = 0
KWA1 100330Z 20009KT 14/03 A2995 RMK A01 T01360026  RH  047%=      5-min Rain = 0
KWA1 100331Z 20009KT 14/03 A2995 RMK A01 T01350025  RH  048%=      5-min Rain = 0
KWA1 100332Z 20010KT 13/03 A2995 RMK A01 T01330025  RH  048%=      5-min Rain = 0
KWA1 100333Z 20010KT 13/03 A2995 RMK A01 T01330026  RH  048%=      5-min Rain = 0
KWA1 100334Z 20010KT 13/03 A2995 RMK A01 T01330026  RH  048%=      5-min Rain = 0
KWA1 100335Z 20010KT 13/03 A2995 RMK A01 T01340026  RH  048%=      5-min Rain = 0
KWA1 100336Z 20011KT 14/03 A2995 RMK A01 T01360027  RH  048%=      5-min Rain = 0
KWA1 100337Z 20011KT 14/03 A2995 RMK A01 T01380027  RH  047%=      5-min Rain = 0
KWA1 100338Z 21010KT 14/03 A2995 RMK A01 T01390027  RH  047%=      5-min Rain = 0
KWA1 100339Z 20010KT 14/03 A2995 RMK A01 T01390027  RH  047%=      5-min Rain = 0
KWA1 100340Z 20010KT 14/03 A2995 RMK A01 T01380027  RH  047%=      5-min Rain = 0
KWA1 100341Z 21011KT 14/03 A2995 RMK A01 T01380027  RH  047%=      5-min Rain = 0
KWA1 100342Z 21010KT 14/03 A2995 RMK A01 T01380027  RH  047%=      5-min Rain = 0
KWA1 100343Z 21010KT 14/03 A2995 RMK A01 T01380028  RH  047%=      5-min Rain = 0
KWA1 100344Z 20011KT 14/03 A2995 RMK A01 T01370028  RH  048%=      5-min Rain = 0
KWA1 100345Z 21010KT 14/03 A2995 RMK A01 T01370028  RH  048%=      5-min Rain = 0
KWA1 100346Z 21010KT 14/03 A2995 RMK A01 T01370028  RH  048%=      5-min Rain = 0
KWA1 100347Z 20010KT 14/03 A2995 RMK A01 T01360028  RH  048%=      5-min Rain = 0
KWA1 100348Z 20012KT 14/03 A2995 RMK A01 T01370028  RH  048%=      5-min Rain = 0
KWA1 100349Z 20012KT 14/03 A2995 RMK A01 T01370028  RH  047%=      5-min Rain = 0
KWA1 100350Z 20011G16KT 14/03 A2995 RMK A01 T01370028  RH  047%=      5-min Rain = 0
KWA1 100351Z 21012KT 14/03 A2995 RMK A01 T01380028  RH  047%=      5-min Rain = 0
KWA1 100352Z 20011KT 14/03 A2995 RMK A01 T01390028  RH  047%=      5-min Rain = 0
KWA1 100353Z 20011KT 14/03 A2995 RMK A01 T01390028  RH  047%=      5-min Rain = 0
KWA1 100354Z 20010KT 14/03 A2995 RMK A01 T01390028  RH  047%=      5-min Rain = 0
KWA1 100355Z 20011KT 14/03 A2995 RMK A01 T01380028  RH  047%=      5-min Rain = 0
KWA1 100356Z 20010KT 14/03 A2995 RMK A01 T01380028  RH  047%=      5-min Rain = 0
KWA1 100357Z 20010KT 14/03 A2995 RMK A01 T01390029  RH  047%=      5-min Rain = 0
KWA1 100358Z 20011KT 14/03 A2995 RMK A01 T01380028  RH  048%=      5-min Rain = 0
KWA1 100359Z 20010KT 14/03 A2995 RMK A01 T01380028  RH  047%=      5-min Rain = 0
KWA1 100400Z 20010KT 14/03 A2995 RMK A01 T01370028  RH  048%=      5-min Rain = 0
KWA1 100401Z 20008KT 14/03 A2995 RMK A01 T01360028  RH  048%=      5-min Rain = 0
KWA1 100402Z 20010KT 14/03 A2995 RMK A01 T01350028  RH  048%=      5-min Rain = 0
KWA1 100403Z 20011KT 14/03 A2995 RMK A01 T01350028  RH  048%=      5-min Rain = 0
KWA1 100404Z 20010KT 14/03 A2995 RMK A01 T01360028  RH  048%=      5-min Rain = 0
KWA1 100405Z 20010KT 14/03 A2995 RMK A01 T01370028  RH  048%=      5-min Rain = 0
KWA1 100406Z 20010KT 14/03 A2995 RMK A01 T01360028  RH  048%=      5-min Rain = 0
KWA1 100407Z 20011KT 14/03 A2995 RMK A01 T01360028  RH  048%=      5-min Rain = 0
KWA1 100408Z 20011KT 14/03 A2995 RMK A01 T01350027  RH  048%=      5-min Rain = 0
KWA1 100409Z 20010KT 14/03 A2995 RMK A01 T01360028  RH  048%=      5-min Rain = 0
KWA1 100410Z 20010KT 14/03 A2995 RMK A01 T01360028  RH  048%=      5-min Rain = 0
KWA1 100411Z 20011KT 14/03 A2995 RMK A01 T01360027  RH  048%=      5-min Rain = 0
KWA1 100412Z 20010KT 14/03 A2995 RMK A01 T01360028  RH  048%=      5-min Rain = 0
KWA1 100413Z 20011KT 14/03 A2995 RMK A01 T01360027  RH  048%=      5-min Rain = 0
KWA1 100414Z 20010KT 14/03 A2995 RMK A01 T01360027  RH  048%=      5-min Rain = 0
KWA1 100415Z 20009KT 14/03 A2995 RMK A01 T01360027  RH  048%=      5-min Rain = 0
KWA1 100416Z 20011KT 14/03 A2995 RMK A01 T01360027  RH  048%=      5-min Rain = 0
KWA1 100417Z 20011KT 14/03 A2995 RMK A01 T01360027  RH  048%=      5-min Rain = 0
KWA1 100418Z 20009KT 14/03 A2995 RMK A01 T01370028  RH  048%=      5-min Rain = 0
KWA1 100419Z 20010KT 14/03 A2995 RMK A01 T01350027  RH  048%=      5-min Rain = 0
KWA1 100420Z 20010KT 14/03 A2995 RMK A01 T01350027  RH  048%=      5-min Rain = 0
KWA1 100421Z 20010KT 14/03 A2995 RMK A01 T01350027  RH  048%=      5-min Rain = 0
KWA1 100422Z 20011KT 14/03 A2995 RMK A01 T01350027  RH  048%=      5-min Rain = 0
KWA1 100423Z 20011KT 14/03 A2995 RMK A01 T01350027  RH  048%=      5-min Rain = 0
KWA1 100424Z 20012KT 14/03 A2995 RMK A01 T01370028  RH  048%=      5-min Rain = 0
KWA1 100425Z 20011KT 14/03 A2995 RMK A01 T01380028  RH  047%=      5-min Rain = 0
KWA1 100426Z 20010KT 14/03 A2995 RMK A01 T01380028  RH  047%=      5-min Rain = 0
KWA1 100427Z 20011KT 14/03 A2995 RMK A01 T01370027  RH  048%=      5-min Rain = 0
KWA1 100428Z 20010KT 14/03 A2995 RMK A01 T01360028  RH  048%=      5-min Rain = 0
KWA1 100429Z 20010KT 14/03 A2995 RMK A01 T01360028  RH  048%=      5-min Rain = 0
KWA1 100430Z 20011KT 14/03 A2995 RMK A01 T01360028  RH  048%=      5-min Rain = 0
KWA1 100431Z 20010KT 14/03 A2995 RMK A01 T01360028  RH  048%=      5-min Rain = 0
KWA1 100432Z 20010KT 14/03 A2995 RMK A01 T01360028  RH  048%=      5-min Rain = 0
KWA1 100433Z 19010KT 14/03 A2995 RMK A01 T01360028  RH  048%=      5-min Rain = 0
KWA1 100434Z 19011KT 14/03 A2995 RMK A01 T01370028  RH  048%=      5-min Rain = 0
KWA1 100435Z 20009KT 14/03 A2995 RMK A01 T01380028  RH  048%=      5-min Rain = 0
KWA1 100436Z 19009KT 14/03 A2995 RMK A01 T01370028  RH  048%=      5-min Rain = 0
KWA1 100437Z 20010KT 14/03 A2994 RMK A01 T01370028  RH  048%=      5-min Rain = 0
KWA1 100438Z 19010KT 14/03 A2994 RMK A01 T01370028  RH  048%=      5-min Rain = 0
KWA1 100439Z 19010KT 14/03 A2994 RMK A01 T01380028  RH  047%=      5-min Rain = 0
KWA1 100440Z 19011KT 14/03 A2994 RMK A01 T01380028  RH  047%=      5-min Rain = 0
KWA1 100441Z 19010KT 14/03 A2994 RMK A01 T01380028  RH  047%=      5-min Rain = 0
KWA1 100442Z 19010KT 14/03 A2994 RMK A01 T01380028  RH  047%=      5-min Rain = 0
KWA1 100443Z 20010KT 14/03 A2994 RMK A01 T01380028  RH  047%=      5-min Rain = 0
KWA1 100444Z 19010KT 14/03 A2994 RMK A01 T01380028  RH  047%=      5-min Rain = 0
KWA1 100445Z 19011KT 14/03 A2994 RMK A01 T01380028  RH  047%=      5-min Rain = 0
KWA1 100446Z 19010KT 14/03 A2994 RMK A01 T01370028  RH  048%=      5-min Rain = 0
KWA1 100447Z 19011KT 14/03 A2994 RMK A01 T01370028  RH  047%=      5-min Rain = 0
KWA1 100448Z 19011KT 14/03 A2994 RMK A01 T01380028  RH  047%=      5-min Rain = 0
KWA1 100449Z 19012KT 14/03 A2994 RMK A01 T01380028  RH  047%=      5-min Rain = 0
KWA1 100450Z 19012KT 14/03 A2994 RMK A01 T01370028  RH  047%=      5-min Rain = 0
KWA1 100451Z 19011KT 14/03 A2994 RMK A01 T01380028  RH  047%=      5-min Rain = 0
KWA1 100452Z 19013KT 14/03 A2994 RMK A01 T01380028  RH  047%=      5-min Rain = 0
KWA1 100453Z 19013KT 14/03 A2994 RMK A01 T01380027  RH  047%=      5-min Rain = 0
KWA1 100454Z 19012KT 14/03 A2994 RMK A01 T01390028  RH  047%=      5-min Rain = 0
KWA1 100455Z 20013KT 14/03 A2994 RMK A01 T01390027  RH  047%=      5-min Rain = 0
KWA1 100456Z 20013KT 14/03 A2994 RMK A01 T01380028  RH  047%=      5-min Rain = 0
KWA1 100457Z 20013KT 14/03 A2994 RMK A01 T01380028  RH  047%=      5-min Rain = 0
KWA1 100458Z 20013KT 14/03 A2994 RMK A01 T01390027  RH  047%=      5-min Rain = 0
KWA1 100459Z 19013KT 14/03 A2994 RMK A01 T01390027  RH  047%=      5-min Rain = 0
KWA1 100500Z 20013KT 14/03 A2994 RMK A01 T01390027  RH  047%=      5-min Rain = 0
KWA1 100501Z 20012KT 14/03 A2994 RMK A01 T01380027  RH  047%=      5-min Rain = 0
KWA1 100502Z 19013KT 14/03 A2994 RMK A01 T01380027  RH  047%=      5-min Rain = 0
KWA1 100503Z 19014KT 14/03 A2994 RMK A01 T01370027  RH  047%=      5-min Rain = 0
KWA1 100504Z 19014KT 14/03 A2993 RMK A01 T01380027  RH  047%=      5-min Rain = 0
KWA1 100505Z 19013KT 14/03 A2993 RMK A01 T01380027  RH  047%=      5-min Rain = 0
KWA1 100506Z 19014G20KT 14/03 A2993 RMK A01 T01380027  RH  047%=      5-min Rain = 0
KWA1 100507Z 19017KT 14/03 A2993 RMK A01 T01380027  RH  047%=      5-min Rain = 0
KWA1 100508Z 19013KT 14/03 A2993 RMK A01 T01390027  RH  047%=      5-min Rain = 0
KWA1 100509Z 19016KT 14/03 A2993 RMK A01 T01390027  RH  047%=      5-min Rain = 0
KWA1 100510Z 19015KT 14/03 A2993 RMK A01 T01380027  RH  047%=      5-min Rain = 0
KWA1 100511Z 19014KT 14/03 A2993 RMK A01 T01380027  RH  047%=      5-min Rain = 0
KWA1 100512Z 19014KT 14/03 A2993 RMK A01 T01380027  RH  047%=      5-min Rain = 0
KWA1 100513Z 19014KT 14/03 A2993 RMK A01 T01380027  RH  047%=      5-min Rain = 0
KWA1 100514Z 19014KT 14/03 A2993 RMK A01 T01380027  RH  047%=      5-min Rain = 0
KWA1 100515Z 19014KT 14/03 A2993 RMK A01 T01370027  RH  047%=      5-min Rain = 0
KWA1 100516Z 19016KT 14/03 A2993 RMK A01 T01360027  RH  048%=      5-min Rain = 0
KWA1 100517Z 19014G19KT 14/03 A2993 RMK A01 T01360027  RH  048%=      5-min Rain = 0
KWA1 100518Z 20014KT 14/03 A2993 RMK A01 T01370027  RH  047%=      5-min Rain = 0
KWA1 100519Z 20013KT 14/03 A2993 RMK A01 T01370027  RH  047%=      5-min Rain = 0
KWA1 100520Z 20014KT 14/03 A2993 RMK A01 T01360027  RH  047%=      5-min Rain = 0
KWA1 100521Z 20014KT 14/03 A2993 RMK A01 T01360027  RH  048%=      5-min Rain = 0
KWA1 100522Z 20015KT 14/03 A2993 RMK A01 T01360027  RH  048%=      5-min Rain = 0
KWA1 100523Z 20016KT 14/03 A2993 RMK A01 T01360027  RH  048%=      5-min Rain = 0
KWA1 100524Z 20014KT 14/03 A2993 RMK A01 T01370027  RH  047%=      5-min Rain = 0
KWA1 100525Z 20014KT 14/03 A2993 RMK A01 T01360026  RH  047%=      5-min Rain = 0
KWA1 100526Z 20014G19KT 14/03 A2993 RMK A01 T01360026  RH  048%=      5-min Rain = 0
KWA1 100527Z 19015KT 14/03 A2993 RMK A01 T01350027  RH  048%=      5-min Rain = 0
KWA1 100528Z 20016KT 14/03 A2993 RMK A01 T01360027  RH  048%=      5-min Rain = 0
KWA1 100529Z 19015KT 14/03 A2993 RMK A01 T01360027  RH  047%=      5-min Rain = 0
KWA1 100530Z 20015KT 14/03 A2993 RMK A01 T01360027  RH  047%=      5-min Rain = 0
KWA1 100531Z 19017G22KT 14/03 A2993 RMK A01 T01360027  RH  048%=      5-min Rain = 0
KWA1 100532Z 20016G21KT 14/03 A2993 RMK A01 T01360027  RH  048%=      5-min Rain = 0
KWA1 100533Z 20016G21KT 14/03 A2993 RMK A01 T01370027  RH  047%=      5-min Rain = 0
KWA1 100534Z 20014KT 14/03 A2993 RMK A01 T01360027  RH  047%=      5-min Rain = 0
KWA1 100535Z 20014KT 14/03 A2993 RMK A01 T01360027  RH  048%=      5-min Rain = 0
KWA1 100536Z 20014KT 14/03 A2993 RMK A01 T01350026  RH  048%=      5-min Rain = 0
KWA1 100537Z 20014KT 13/03 A2992 RMK A01 T01340027  RH  048%=      5-min Rain = 0
KWA1 100538Z 20013KT 14/03 A2992 RMK A01 T01350026  RH  048%=      5-min Rain = 0
KWA1 100539Z 20012KT 14/03 A2993 RMK A01 T01350026  RH  048%=      5-min Rain = 0
KWA1 100540Z 20012KT 14/03 A2992 RMK A01 T01350027  RH  048%=      5-min Rain = 0
KWA1 100541Z 20012KT 13/03 A2992 RMK A01 T01340027  RH  048%=      5-min Rain = 0
KWA1 100542Z 20013KT 13/03 A2992 RMK A01 T01330027  RH  048%=      5-min Rain = 0
KWA1 100543Z 20012KT 13/03 A2993 RMK A01 T01330027  RH  049%=      5-min Rain = 0
KWA1 100544Z 20012KT 13/03 A2992 RMK A01 T01330027  RH  049%=      5-min Rain = 0
KWA1 100545Z 20012KT 13/03 A2992 RMK A01 T01320027  RH  049%=      5-min Rain = 0
KWA1 100546Z 20011KT 13/03 A2992 RMK A01 T01330027  RH  049%=      5-min Rain = 0
KWA1 100547Z 20011KT 13/03 A2992 RMK A01 T01330027  RH  049%=      5-min Rain = 0
KWA1 100548Z 20012KT 13/03 A2992 RMK A01 T01320027  RH  049%=      5-min Rain = 0
KWA1 100549Z 20013KT 13/03 A2992 RMK A01 T01330027  RH  049%=      5-min Rain = 0
KWA1 100550Z 20011KT 13/03 A2992 RMK A01 T01330027  RH  049%=      5-min Rain = 0
KWA1 100551Z 20013KT 13/03 A2992 RMK A01 T01330027  RH  049%=      5-min Rain = 0
KWA1 100552Z 20015KT 13/03 A2992 RMK A01 T01330027  RH  049%=      5-min Rain = 0
KWA1 100553Z 20011KT 13/03 A2992 RMK A01 T01330027  RH  049%=      5-min Rain = 0
KWA1 100554Z 20015KT 13/03 A2992 RMK A01 T01330027  RH  049%=      5-min Rain = 0
KWA1 100555Z 20014KT 13/03 A2992 RMK A01 T01330027  RH  049%=      5-min Rain = 0
KWA1 100556Z 20012KT 13/03 A2992 RMK A01 T01330027  RH  049%=      5-min Rain = 0
KWA1 100557Z 20015KT 13/03 A2992 RMK A01 T01330027  RH  049%=      5-min Rain = 0
KWA1 100558Z 20013KT 13/03 A2992 RMK A01 T01330027  RH  049%=      5-min Rain = 0
KWA1 100559Z 21012KT 13/03 A2992 RMK A01 T01330027  RH  049%=      5-min Rain = 0

Page generated in 0.1824 seconds.